GFSSE_sfc_rhum_000.txt.gz
RH
53 61 85 81 86 89 89 91 93 88 83 86 85 84 86 86 83 81 80 80 78 73 72 77 80 76 70 68 75 85 87 88 86 84 81 76 73 74 73 81 82 65 83
52 55 85 83 84 87 88 88 90 91 85 81 84 84 83 84 83 86 88 87 86 84 77 74 74 77 75 78 84 86 86 88 88 86 84 78 76 72 74 81 77 64 84
52 49 53 83 79 80 84 86 87 87 85 87 82 81 85 87 89 86 85 87 81 82 74 86 80 76 77 82 86 86 88 89 89 87 85 77 77 76 75 81 80 80 83
51 52 60 88 84 78 78 78 83 85 86 87 85 80 88 84 88 86 82 81 87 81 72 80 85 79 79 84 87 87 89 90 89 88 85 64 56 78 73 78 77 80 83
52 55 70 88 86 80 78 79 82 84 86 88 87 82 83 86 83 82 82 79 76 76 82 76 88 93 79 86 88 88 87 89 90 84 73 54 58 72 75 74 80 80 81
49 54 85 90 84 78 72 76 82 82 85 89 90 88 86 85 77 74 79 77 81 85 79 89 85 93 92 86 86 87 86 89 90 82 64 57 52 78 77 83 81 77 81
53 55 69 91 89 85 80 83 86 85 83 84 88 88 86 84 85 83 83 84 83 84 79 84 86 86 94 93 85 86 91 92 81 74 56 58 68 82 77 81 87 85 85
49 56 64 88 89 86 85 85 85 85 82 83 86 86 88 87 87 87 89 88 86 83 81 81 86 89 86 85 86 88 90 95 76 75 61 45 75 84 77 82 88 86 85
38 43 51 66 77 86 84 82 85 84 82 80 82 81 88 90 91 88 88 87 82 83 86 80 82 84 85 87 87 88 92 92 94 72 60 55 82 82 79 81 87 87 85
43 40 46 48 62 76 74 80 82 85 83 81 85 85 89 92 90 86 85 82 80 85 84 80 77 85 84 87 89 88 89 89 92 74 69 74 80 77 74 81 83 85 84
36 47 57 55 58 60 57 68 82 85 84 87 86 85 90 77 77 81 84 83 79 78 80 77 74 78 83 85 87 86 88 82 70 71 73 77 78 68 70 80 82 86 86
38 38 47 63 68 66 44 50 72 62 68 71 68 73 72 75 84 78 86 87 82 83 83 81 81 78 76 84 91 88 88 71 65 70 78 81 79 66 66 76 84 83 85
35 38 44 59 68 68 64 69 69 69 72 72 70 73 80 75 81 81 83 84 87 86 91 89 90 93 90 94 94 94 92 92 74 64 59 81 79 68 66 74 82 82 84
29 33 41 58 64 66 61 56 64 59 62 65 68 68 79 82 84 82 85 78 84 78 81 93 97 94 95 92 94 92 94 96 84 71 77 79 82 75 65 68 74 80 82
33 33 38 50 60 63 60 65 65 63 61 58 61 62 68 72 80 77 81 81 81 81 86 90 93 95 96 96 94 93 89 90 93 87 80 81 84 78 70 66 69 73 79
26 34 38 44 54 53 58 63 66 62 58 57 60 64 64 74 77 76 74 75 76 78 82 92 95 93 93 94 93 92 89 86 85 83 78 77 85 82 78 70 67 71 75
26 30 35 39 46 50 54 56 58 52 47 55 62 60 62 66 66 64 67 66 70 74 79 86 85 89 95 94 95 94 93 92 90 91 88 78 80 88 85 80 76 73 76
31 28 31 22 38 44 49 46 44 45 52 54 62 64 60 58 57 61 63 67 66 67 66 66 69 76 84 88 94 93 88 84 87 84 81 83 78 71 85 87 81 79 76
28 28 32 32 33 40 43 41 43 46 48 50 59 58 56 51 49 52 58 66 61 56 57 56 60 61 60 61 57 69 70 73 70 75 77 80 85 80 73 81 85 80 78
32 31 32 33 36 40 42 44 45 48 46 46 50 49 50 49 45 49 55 54 53 54 57 62 64 61 61 60 40 44 59 58 70 86 83 76 77 78 80 77 79 79 82
35 32 32 32 38 38 42 46 46 49 47 48 45 44 48 46 46 49 52 49 52 53 55 55 60 61 65 63 63 58 58 48 53 57 80 90 88 82 78 77 76 74 62
34 34 34 32 35 36 36 40 43 46 42 42 44 50 46 50 46 45 52 48 49 54 57 60 61 62 65 62 72 65 61 49 55 57 55 73 87 90 84 79 78 74 73
40 41 34 32 33 38 39 36 41 44 46 43 43 46 50 50 51 51 50 52 52 55 60 63 61 61 65 64 60 69 65 64 58 48 55 50 63 80 90 93 91 78 75
41 44 40 37 34 33 43 37 45 38 36 35 42 38 36 52 54 48 50 52 56 58 58 62 51 71 67 68 66 53 64 63 60 60 58 55 52 53 79 91 91 90 86
37 48 46 42 40 37 42 45 43 48 45 47 49 47 45 47 44 42 44 52 57 62 64 66 66 67 70 71 68 70 67 64 63 64 63 54 57 54 63 93 94 94 82
40 45 50 47 37 40 43 46 53 51 53 54 53 54 52 51 54 55 48 57 60 60 60 63 63 62 66 67 65 62 61 63 60 60 60 56 55 53 52 64 93 92 94

GFSSE_sfc_rhum_003.txt.gz
RH
79 84 85 88 92 92 93 93 93 92 89 86 85 84 83 85 90 89 86 79 73 69 73 77 72 76 75 72 77 87 87 86 87 85 82 78 74 73 77 86 83 71 85
74 78 84 86 89 91 91 91 91 88 90 86 84 83 83 91 89 87 82 76 76 71 68 74 74 79 74 77 82 86 87 87 86 85 84 80 77 74 78 82 79 74 86
64 68 77 86 86 86 88 89 90 88 88 88 86 85 89 90 85 83 82 80 75 68 68 72 74 84 79 79 82 86 88 90 90 88 87 90 89 74 77 79 82 83 83
62 75 81 89 87 86 86 88 88 86 87 88 88 90 90 88 85 80 76 79 77 74 70 76 85 84 92 90 81 84 88 90 90 88 90 79 72 79 75 78 82 83 84
72 83 87 89 84 83 88 89 89 90 90 90 88 89 90 87 85 84 78 80 77 75 76 76 80 85 87 87 93 89 84 90 91 88 92 78 77 76 74 76 81 85 85
90 95 93 90 87 85 88 89 89 89 92 91 91 90 86 86 83 82 82 81 77 76 80 84 86 84 86 87 92 93 93 85 91 92 84 73 71 78 75 82 83 83 84
90 93 95 92 89 88 84 84 87 88 88 92 92 90 89 85 81 78 78 79 80 86 88 86 76 74 78 87 92 92 95 90 86 89 85 71 79 83 77 79 85 83 84
75 86 84 88 86 84 84 84 84 84 86 89 92 92 89 91 91 89 90 89 88 87 82 81 82 77 84 86 88 90 91 95 82 88 86 75 71 82 78 84 88 89 86
70 82 92 88 83 83 80 81 82 82 85 88 89 92 94 92 92 90 88 84 85 85 86 87 87 88 91 92 88 90 91 91 96 91 74 72 75 81 78 84 89 88 87
60 65 90 92 86 85 80 79 80 82 85 89 90 93 96 92 90 88 87 84 85 83 80 78 85 81 83 86 88 88 89 88 93 92 84 80 81 79 74 81 86 89 87
55 69 75 81 82 84 77 77 83 84 86 90 90 92 96 93 91 86 86 85 79 84 80 75 80 85 86 86 86 85 88 92 85 87 87 77 78 70 76 82 86 89 87
52 61 68 73 78 74 59 85 86 88 91 90 86 90 89 92 91 86 89 86 82 82 83 82 83 82 82 88 94 90 96 90 84 73 83 84 80 68 71 84 86 87 86
45 48 59 74 76 76 72 85 92 84 89 85 82 88 83 90 91 95 98 96 97 86 98 93 95 97 93 95 95 94 95 92 96 86 79 82 84 73 69 77 84 85 85
43 47 60 68 70 73 72 75 74 80 78 86 82 86 95 98 94 95 95 94 93 95 94 88 98 96 94 95 94 94 91 93 89 89 84 80 80 78 64 69 76 82 85
33 42 58 66 71 69 68 72 66 68 68 66 74 67 80 92 94 93 95 93 95 93 92 96 98 97 97 96 97 97 96 91 90 91 92 87 84 78 74 68 66 72 81
28 40 49 58 62 62 73 69 67 64 57 64 71 71 73 81 83 80 88 89 89 89 93 94 93 94 98 98 98 96 95 95 90 88 86 86 87 85 81 73 72 69 73
30 37 41 43 57 56 68 68 66 61 60 65 68 67 68 74 66 69 70 77 78 85 90 92 90 91 94 93 95 96 94 90 93 93 88 81 81 89 87 82 78 74 74
31 34 32 27 48 50 62 64 58 49 52 62 72 71 64 63 67 69 72 71 61 69 74 62 70 72 82 81 88 92 93 84 84 83 93 95 88 79 84 87 84 80 77
31 32 36 26 33 43 45 49 52 54 56 61 76 71 63 57 52 57 71 63 56 64 63 61 62 67 66 65 60 63 62 66 70 57 71 84 92 89 85 85 91 87 83
33 32 35 34 31 40 46 45 49 50 46 58 66 68 60 59 50 50 64 66 57 60 67 62 61 65 67 68 54 54 60 66 73 71 75 80 82 95 90 84 88 89 90
35 30 30 33 37 40 43 46 45 50 50 54 49 55 57 55 48 48 55 61 62 60 60 58 64 60 62 66 70 69 65 60 59 56 71 93 92 93 90 90 87 82 83
33 34 33 33 36 40 43 45 46 47 47 47 50 55 57 55 53 50 54 50 52 55 52 57 67 66 69 66 72 74 72 62 60 60 57 68 72 81 74 80 94 94 89
40 37 36 36 36 43 40 42 47 52 50 45 46 56 53 51 55 53 53 58 57 60 60 65 60 59 68 70 64 72 72 74 70 61 60 63 65 75 75 79 89 85 83
42 43 37 36 39 40 47 43 43 43 42 42 44 46 51 57 57 55 53 57 58 64 64 70 65 72 73 77 76 62 73 76 76 73 69 64 60 59 73 84 89 84 90
44 50 46 43 42 41 46 50 45 47 54 48 50 48 52 62 58 52 56 63 65 70 64 65 67 69 78 80 80 82 78 77 79 75 75 67 71 65 66 81 88 94 90
45 52 54 49 45 46 46 48 52 45 43 53 54 57 59 59 59 54 51 59 60 58 56 58 58 57 62 69 73 76 79 79 67 69 70 65 68 69 64 59 75 93 93

GFSSE_sfc_rhum_006.txt.gz
RH
87 90 90 92 92 93 93 90 93 92 89 87 86 86 92 87 85 81 75 73 70 73 71 70 70 71 74 72 74 80 83 86 86 84 82 76 72 76 79 85 86 80 87
83 82 87 90 92 92 93 90 90 91 89 87 85 90 91 88 83 80 76 76 74 69 61 68 75 75 74 75 82 81 84 86 89 88 86 80 78 73 78 82 80 83 88
75 79 82 87 88 90 91 90 89 89 89 88 87 90 89 86 83 81 80 78 70 65 70 71 74 80 81 84 86 86 80 85 87 87 86 93 90 77 78 79 78 88 87
73 82 88 88 89 90 90 90 89 86 86 91 90 89 89 85 83 81 80 75 73 66 71 77 78 79 86 75 84 88 87 85 87 87 91 87 81 77 78 78 84 85 85
88 92 87 86 88 91 90 90 90 90 91 92 91 89 89 85 84 80 77 78 75 74 74 78 80 83 82 81 79 84 87 86 88 85 92 89 83 74 78 76 85 83 85
95 94 92 88 88 91 91 89 90 91 91 93 93 90 88 84 80 81 82 80 78 76 74 76 78 79 85 84 82 91 87 84 88 86 90 82 77 75 77 82 84 87 87
95 95 93 90 87 86 84 86 89 90 92 92 92 92 88 84 81 78 78 83 80 82 84 84 85 87 86 86 89 93 93 87 92 91 91 83 72 81 76 81 85 87 87
90 95 90 88 86 85 84 85 86 88 91 93 92 92 91 92 91 90 89 86 84 88 84 84 82 83 81 86 89 92 89 90 86 91 93 89 77 79 78 82 83 85 86
84 93 94 90 85 86 86 84 84 86 90 92 93 93 92 93 93 90 88 87 87 87 87 84 85 86 85 90 91 92 94 95 96 97 92 88 78 76 77 84 86 87 88
91 93 95 93 88 84 83 86 86 87 88 93 94 94 92 92 91 88 87 87 86 84 84 82 87 88 88 89 89 89 90 90 94 90 90 82 80 79 78 83 85 89 88
80 94 96 96 92 86 79 78 86 85 89 91 94 95 95 96 94 92 87 86 84 83 80 79 81 86 84 83 86 87 87 94 93 87 85 87 78 70 77 82 86 87 89
72 79 85 92 92 90 65 86 90 89 93 93 95 98 98 96 96 90 90 86 82 83 84 86 86 86 87 92 95 86 98 94 91 83 78 82 81 70 70 81 84 85 88
55 66 77 80 84 78 81 96 98 98 98 97 93 95 94 92 96 98 98 98 97 90 98 95 96 97 94 96 96 95 93 92 97 93 83 86 81 73 68 78 82 84 87
51 61 78 79 77 78 82 95 94 92 96 95 94 91 96 98 97 98 98 98 96 97 96 96 98 97 94 93 95 95 95 95 93 87 83 84 83 77 72 71 76 79 82
48 58 72 77 79 76 72 74 73 74 78 77 80 80 96 97 97 97 96 96 96 97 97 97 96 96 96 95 95 97 97 96 96 93 95 88 86 82 75 71 73 73 80
43 56 71 72 75 75 76 72 69 68 66 72 78 79 86 94 95 96 96 96 96 94 94 92 92 92 94 94 96 91 94 97 97 95 94 89 86 84 80 73 73 72 75
42 49 60 65 68 65 75 71 68 63 61 71 74 75 80 78 73 79 83 91 89 91 90 92 90 91 90 91 85 89 94 93 91 93 97 95 90 87 87 82 79 75 73
40 44 44 42 61 61 71 72 68 63 64 69 75 76 72 74 71 76 78 75 72 77 88 70 70 70 73 75 80 79 84 88 75 70 76 87 94 88 89 89 88 84 81
39 38 33 46 48 49 54 62 56 56 55 62 80 77 70 68 66 70 79 72 62 69 71 64 67 68 66 66 62 65 65 65 61 57 62 63 74 92 95 92 91 91 90
38 39 36 31 34 43 50 51 54 56 55 61 76 78 69 66 60 62 73 70 63 69 71 70 62 69 68 66 56 58 68 63 70 68 69 65 78 86 85 90 93 95 94
36 34 37 36 37 43 48 50 51 50 54 57 63 70 70 65 60 58 64 69 70 66 69 65 64 66 65 68 70 70 68 66 62 55 71 79 87 91 94 94 93 90 92
34 34 34 33 36 42 46 48 46 48 50 49 53 59 70 68 62 57 61 65 66 69 67 67 68 71 72 74 72 80 75 63 64 63 60 64 76 79 73 68 75 84 92
37 37 34 35 36 41 45 47 50 56 57 56 53 56 61 64 60 60 59 66 64 67 66 63 64 67 71 76 71 75 83 82 74 64 67 68 68 78 79 77 70 74 84
40 44 40 39 39 41 48 49 48 38 38 37 38 50 56 58 58 61 62 65 66 72 73 74 70 79 80 80 82 72 79 87 89 69 68 66 68 65 77 83 77 69 80
40 46 48 45 45 44 50 55 54 48 45 42 57 52 55 62 62 66 66 71 75 72 65 60 59 59 71 72 73 80 81 83 83 78 68 53 51 65 72 79 84 80 65
50 52 54 53 49 51 53 55 61 58 50 54 55 60 67 70 70 70 62 66 64 63 61 62 57 58 59 58 59 61 75 73 62 71 66 60 55 47 49 48 48 72 81

GFSSE_sfc_rhum_009.txt.gz
RH
92 93 92 92 92 92 90 93 93 90 88 88 91 89 88 86 84 84 82 80 77 75 67 66 70 71 73 70 73 76 79 84 85 84 81 72 71 71 78 87 86 82 84
90 91 91 92 93 94 92 92 93 90 88 87 91 89 88 85 82 78 77 75 78 68 68 70 73 72 76 83 84 82 80 83 84 86 83 79 75 75 76 83 85 88 85
86 85 85 91 92 92 90 90 90 90 89 88 90 90 88 83 81 78 77 79 72 72 71 72 77 78 76 76 80 81 83 85 87 85 86 91 90 75 77 84 81 86 85
84 89 90 92 91 90 90 91 90 86 88 90 90 90 88 85 82 81 81 79 76 71 72 71 73 80 74 78 78 80 85 83 86 89 90 88 83 77 74 79 82 84 83
94 91 88 92 92 90 90 90 90 89 92 92 93 90 88 85 82 81 77 80 75 75 74 74 75 79 82 79 82 80 84 86 89 86 92 91 90 79 74 77 82 82 86
94 93 88 91 92 90 88 87 87 88 92 94 93 89 87 85 84 83 82 79 77 77 74 76 77 79 86 88 87 82 91 89 91 92 90 87 84 76 76 82 87 87 87
95 94 90 89 88 88 84 84 89 90 92 92 93 91 88 86 83 80 83 84 82 78 84 84 86 90 89 89 86 90 93 92 90 89 95 92 85 75 77 83 86 87 86
91 94 91 86 84 84 85 87 89 91 92 92 92 92 91 90 91 89 85 81 82 83 88 86 86 84 88 84 84 90 89 88 85 94 94 97 89 80 73 80 86 88 88
93 95 94 92 87 87 86 86 88 90 92 93 91 92 92 93 94 91 89 88 88 88 88 83 88 87 86 86 89 92 94 94 97 98 94 96 82 77 76 78 84 86 88
95 95 94 93 91 90 90 89 88 91 92 93 92 92 91 92 91 90 89 88 86 85 82 82 87 88 88 88 89 90 91 91 95 91 94 96 89 76 73 80 80 84 86
94 95 95 94 92 89 81 81 87 86 91 94 95 93 96 96 94 92 87 87 86 84 84 85 84 85 83 84 84 86 86 97 96 92 81 81 76 75 70 77 82 84 86
96 96 96 95 94 92 72 85 90 90 94 96 98 98 98 96 95 91 90 86 82 84 86 85 86 87 90 97 97 88 91 89 95 95 90 86 80 76 73 77 81 81 82
91 90 95 96 94 94 91 95 98 98 98 97 95 98 98 95 97 98 98 98 96 88 97 94 96 98 95 96 97 97 96 94 96 88 83 84 78 73 73 73 79 80 81
66 73 84 89 86 82 94 98 97 98 98 98 97 95 97 98 98 98 99 98 97 98 96 97 98 96 96 95 95 97 97 98 99 98 93 87 83 77 71 72 73 76 81
56 68 83 86 87 77 84 84 90 91 98 96 96 94 96 97 97 98 97 98 97 98 98 98 96 96 95 95 95 95 95 95 97 99 99 90 88 82 81 73 72 74 76
54 63 76 84 86 77 77 74 74 76 76 81 84 83 92 96 97 97 98 97 97 96 96 94 93 92 92 93 93 91 95 97 96 95 96 93 86 81 75 80 78 70 68
50 59 76 77 82 81 79 75 72 68 68 74 80 83 89 93 92 94 97 98 97 95 91 92 90 91 83 85 77 81 82 87 93 81 83 89 82 83 88 83 81 82 76
50 59 66 56 72 70 82 78 74 72 71 71 80 83 83 82 77 80 82 90 89 82 95 85 72 72 73 74 78 75 73 80 71 62 68 79 89 80 88 90 87 84 82
50 52 47 62 66 63 74 77 72 66 64 64 79 83 79 79 78 80 82 80 75 76 85 71 70 69 67 66 61 65 66 67 63 59 59 62 71 83 96 94 93 93 90
47 41 36 51 52 52 56 59 59 61 65 66 68 81 78 79 76 72 79 81 72 73 75 75 68 74 70 67 55 60 67 68 67 67 66 64 71 78 87 90 96 87 93
45 43 36 35 38 50 53 54 55 53 57 62 62 64 78 76 72 72 72 77 76 72 70 73 70 67 71 74 72 71 72 69 64 65 70 75 79 77 79 85 88 82 81
38 39 40 38 39 42 47 48 49 51 52 53 58 62 71 75 72 68 64 66 72 71 73 76 72 76 74 79 71 83 74 70 68 66 71 70 76 82 80 75 79 83 86
39 38 37 37 38 42 46 49 51 57 58 58 55 59 56 70 70 70 63 60 67 71 68 71 75 74 73 82 77 74 83 83 87 74 64 72 75 76 82 81 78 78 79
40 44 44 43 43 42 48 50 53 45 42 39 43 46 47 62 60 64 62 62 64 76 76 76 74 81 80 76 75 76 81 82 76 70 68 60 58 63 76 85 82 66 66
45 51 56 55 53 52 56 58 61 62 56 52 54 62 58 60 69 66 66 67 72 79 75 71 66 64 68 68 65 70 74 83 87 88 60 48 56 59 69 80 81 81 65
59 60 58 56 54 53 54 60 68 70 65 68 66 69 64 72 75 77 74 72 65 66 70 69 65 63 65 68 68 72 72 66 67 75 82 62 66 64 63 64 66 74 80

GFSSE_sfc_rhum_012.txt.gz
RH
92 96 92 92 92 91 93 93 90 89 90 90 90 87 88 86 84 85 83 80 80 74 69 72 70 73 68 67 73 79 80 81 83 80 79 72 73 72 78 87 86 80 83
91 95 93 93 93 91 92 94 91 89 90 89 89 88 87 86 83 81 79 79 76 73 71 74 71 71 77 78 79 79 78 83 87 86 85 79 76 74 73 86 86 83 82
92 92 93 92 92 91 91 91 91 89 88 88 88 88 86 83 80 79 81 77 72 70 70 68 73 78 78 78 81 83 81 84 84 85 86 87 84 76 76 85 84 88 82
88 92 94 92 90 89 90 90 90 88 89 90 90 89 86 82 81 79 84 79 74 70 72 70 72 78 75 79 80 83 84 82 85 87 90 86 80 76 73 81 82 82 82
93 93 95 91 89 88 89 89 90 90 91 92 93 89 88 85 83 82 83 80 78 81 75 73 74 76 84 82 83 80 86 88 89 86 89 88 88 81 76 78 82 84 86
93 91 93 91 89 88 87 85 85 88 93 92 91 90 87 86 84 84 83 79 74 76 75 77 78 80 85 88 88 86 90 87 83 86 87 89 85 80 73 80 82 84 88
94 92 92 92 88 86 82 82 88 90 91 93 92 91 89 86 84 81 81 84 84 80 84 86 86 88 89 89 86 87 90 89 89 91 89 92 90 78 74 78 83 83 85
93 93 91 87 84 85 86 86 88 89 90 90 90 92 90 90 91 89 86 81 82 85 89 85 85 86 85 85 89 88 90 90 91 94 92 93 88 81 75 77 81 82 83
94 94 92 90 86 87 86 88 89 90 92 91 90 92 92 94 93 90 90 88 87 87 87 87 89 91 90 91 91 91 91 91 96 96 92 96 89 83 77 76 81 84 84
95 93 93 92 90 90 90 88 88 91 92 92 90 91 91 91 90 87 88 87 85 83 84 85 86 85 84 84 85 88 87 90 94 93 92 91 79 74 76 77 80 83 85
93 94 93 92 91 88 83 82 88 88 92 94 93 92 95 96 93 91 88 87 85 84 84 84 85 86 86 86 84 84 85 93 91 90 89 84 77 74 74 75 82 84 84
96 95 95 94 93 90 73 85 91 90 94 96 98 97 97 95 94 91 89 85 80 82 83 84 84 86 86 93 95 90 94 91 92 89 85 81 76 72 72 74 80 81 84
94 96 96 95 95 94 94 94 98 98 98 97 95 98 98 98 97 97 98 98 96 87 97 95 96 98 96 97 97 97 97 97 98 95 89 86 82 77 72 71 72 76 81
92 94 94 96 96 95 96 97 97 98 98 98 97 95 98 98 97 98 99 98 98 98 96 97 98 96 95 93 94 94 95 96 98 98 95 88 77 69 72 74 72 70 76
86 87 88 92 93 84 93 97 97 98 98 97 97 95 97 97 97 97 98 98 98 97 98 97 95 94 92 90 92 94 94 96 96 96 94 76 72 61 59 61 69 75 71
72 73 86 90 91 85 88 88 92 93 95 96 95 96 92 97 97 97 97 97 97 98 97 95 91 88 87 89 86 79 80 85 92 85 78 79 71 69 69 67 66 68 75
60 66 81 87 88 84 80 78 77 78 78 82 86 85 85 93 96 96 98 98 98 97 94 93 91 92 82 79 72 76 76 76 87 75 68 71 74 72 76 80 78 77 76
56 64 79 67 83 85 85 85 80 76 74 73 79 86 87 91 92 92 96 97 97 97 96 96 79 75 74 74 75 72 71 70 67 62 66 71 77 74 79 80 72 78 68
53 62 70 67 75 73 77 86 85 78 78 72 77 84 84 86 87 86 86 87 90 91 93 93 76 74 71 69 66 66 71 68 64 56 61 65 68 75 85 76 74 74 68
56 59 54 59 69 66 65 66 66 66 65 72 70 74 80 83 84 86 86 84 84 81 83 85 75 78 73 69 55 59 70 69 70 68 64 61 70 73 75 76 86 81 74
53 44 40 47 51 54 58 57 59 56 57 62 63 63 72 77 80 83 80 83 86 77 70 76 77 73 76 80 73 70 73 72 72 67 69 75 70 75 73 79 82 80 81
45 44 41 39 40 45 51 52 55 55 55 57 59 61 64 70 78 77 76 72 78 77 78 77 76 78 76 82 72 81 70 67 66 71 72 66 74 78 69 71 74 77 80
41 42 41 42 42 46 48 51 52 56 57 55 52 56 52 61 65 77 72 72 71 76 71 68 72 75 68 85 82 71 84 77 80 70 66 60 72 67 77 70 71 75 72
43 47 48 48 48 49 56 57 60 59 59 55 57 54 50 59 66 66 76 77 72 73 78 83 77 80 79 84 82 76 73 75 60 58 61 68 54 57 67 76 74 68 69
58 65 66 60 58 58 61 64 69 65 65 70 70 72 69 68 70 68 72 77 82 84 83 78 74 72 68 68 64 70 75 80 82 72 66 59 56 59 63 74 79 81 70
64 64 64 62 60 61 63 63 68 74 73 75 74 78 78 82 81 81 83 86 83 79 80 81 82 76 78 77 77 75 75 71 71 77 86 72 62 58 65 64 71 74 78

GFSSE_sfc_rhum_015.txt.gz
RH
66 74 92 90 91 93 92 91 90 89 86 86 86 84 82 82 82 80 79 80 80 73 71 71 71 71 68 67 69 76 82 81 79 79 77 70 69 74 81 87 85 57 84
66 75 91 91 90 91 91 90 88 86 87 84 86 84 82 81 80 83 79 79 76 71 69 67 70 71 75 73 73 75 78 82 84 83 83 74 73 70 77 86 85 64 84
67 71 73 92 90 90 91 92 89 86 87 86 85 85 84 81 82 84 82 80 78 70 70 68 73 73 75 74 81 84 84 83 82 82 83 46 50 74 74 84 83 83 79
65 71 74 90 89 88 89 90 91 89 88 89 87 86 82 80 80 85 79 79 74 70 70 71 72 76 79 80 82 78 84 87 88 86 57 56 54 74 72 80 79 82 80
65 70 73 90 88 87 86 88 90 90 92 93 92 89 87 84 83 82 80 81 75 74 73 72 74 81 84 87 86 83 83 85 82 71 63 63 66 69 76 74 77 82 85
63 69 81 91 86 84 85 86 85 88 93 93 92 90 88 86 85 86 84 79 74 74 75 79 84 86 90 90 86 84 87 89 86 62 56 65 67 73 74 78 81 81 83
60 68 67 91 86 84 81 82 87 88 90 91 90 90 88 86 84 82 80 80 83 80 84 84 82 84 84 85 81 84 87 88 65 62 65 82 67 83 74 75 81 85 82
56 62 64 82 86 84 84 85 87 89 89 89 91 91 90 90 90 88 88 88 87 88 87 86 89 88 86 89 91 92 92 92 73 70 73 74 83 84 77 75 80 84 82
59 60 62 60 68 87 86 85 88 88 90 89 90 90 91 92 90 88 89 86 86 84 86 86 87 89 86 85 83 84 88 88 67 66 65 64 77 74 73 73 79 82 81
66 63 66 67 63 66 64 86 87 90 90 90 90 89 89 88 88 84 85 84 84 84 84 85 85 84 84 85 85 84 84 80 58 61 65 70 76 72 73 74 77 81 83
71 70 71 69 68 66 60 66 80 88 91 92 88 90 85 67 67 68 83 86 83 82 82 82 83 83 80 78 81 81 76 52 54 52 52 80 75 70 71 73 76 80 84
68 69 67 73 72 70 54 64 68 69 66 71 74 77 68 74 71 69 76 83 81 81 83 83 82 84 70 56 57 71 55 62 56 56 52 85 79 73 71 71 72 76 80
62 65 70 74 77 74 66 61 61 63 67 69 77 77 78 77 76 72 71 69 70 76 63 69 68 68 72 71 68 68 62 61 56 56 65 82 70 69 69 71 71 70 76
68 66 70 75 79 80 71 67 65 66 67 67 70 78 78 74 78 77 70 71 76 68 71 72 75 77 73 71 68 67 63 60 51 50 49 72 63 55 54 58 64 71 72
66 66 72 77 80 76 74 70 73 73 72 72 73 76 74 73 75 71 71 71 70 69 68 72 71 65 62 56 57 54 51 52 56 38 36 67 67 63 64 60 60 64 69
59 65 70 71 72 67 63 74 73 75 72 73 73 74 80 75 76 70 69 68 68 67 66 74 71 56 55 54 53 50 47 46 50 47 33 39 66 69 71 65 68 70 70
55 59 64 65 68 69 64 62 61 59 63 67 69 75 74 74 71 73 69 69 65 68 77 72 65 61 54 51 51 50 48 49 49 46 37 36 37 66 72 65 69 61 62
49 54 57 55 61 66 64 59 56 52 54 53 55 57 66 68 69 70 67 68 65 72 72 69 62 56 48 44 43 38 40 43 44 42 39 40 36 33 54 65 64 62 62
47 49 54 58 58 60 60 56 62 63 57 52 55 51 58 63 68 68 63 62 67 64 69 68 64 61 48 42 39 40 42 39 43 34 40 46 44 41 37 62 66 68 60
48 49 51 52 54 57 52 53 48 48 46 48 46 45 53 53 62 64 60 64 64 59 62 65 67 58 50 43 34 34 43 42 42 42 39 36 40 43 42 44 39 39 65
47 46 47 44 47 46 42 40 39 40 38 38 37 43 48 47 54 61 56 60 64 63 60 62 61 65 55 52 49 44 44 48 50 42 41 37 41 41 44 42 33 28 30
40 41 38 35 36 35 35 38 41 42 38 39 42 47 47 50 50 52 59 56 58 59 65 66 66 56 54 53 47 45 44 40 45 46 42 44 46 43 36 36 34 37 36
39 41 35 37 38 41 45 39 41 43 44 39 36 36 39 48 50 53 54 57 59 59 60 63 64 64 55 52 56 44 48 46 40 45 53 43 47 39 38 32 36 34 35
47 52 47 46 43 44 49 47 51 44 42 41 46 43 46 51 52 53 56 58 61 61 64 62 57 64 61 56 57 53 58 52 47 44 43 42 43 37 38 37 36 33 41
53 54 52 47 48 50 53 50 47 49 47 47 47 51 51 50 53 55 57 62 64 62 66 69 66 66 60 57 56 59 55 50 55 46 45 40 38 40 39 40 39 38 39
54 55 54 50 47 50 52 49 53 56 55 52 51 49 46 47 52 59 60 66 68 67 68 69 72 75 72 71 70 75 66 63 60 67 70 71 69 50 40 37 40 39 37

GFSSE_sfc_rhum_018.txt.gz
RH
40 50 90 87 88 87 89 87 85 85 84 85 84 83 82 81 81 84 82 82 79 72 70 68 68 69 68 67 66 71 72 72 73 73 74 69 69 74 80 81 80 45 81
42 48 91 88 88 88 89 88 85 84 82 83 84 82 82 83 84 82 82 79 73 69 68 66 69 69 74 71 77 79 79 80 80 78 77 71 68 71 77 79 78 61 80
38 45 52 90 89 91 91 88 85 82 82 80 80 82 81 83 84 81 82 77 71 71 68 70 70 71 76 81 78 80 83 83 84 81 75 36 33 71 73 80 79 78 76
39 43 48 90 89 89 90 92 91 88 86 86 84 82 79 79 83 78 80 79 75 72 70 71 74 78 82 82 82 78 80 82 82 78 44 36 33 72 72 77 78 79 77
40 43 56 88 87 87 88 88 88 89 91 90 87 83 80 79 78 78 81 80 75 72 70 74 78 82 85 84 81 79 80 82 80 66 40 44 42 57 73 73 74 81 82
35 36 71 87 84 83 82 81 85 87 90 89 89 88 86 84 83 84 83 78 77 76 78 81 82 83 82 86 80 78 80 83 85 41 45 53 54 68 70 73 80 81 81
31 35 42 88 83 81 77 80 84 85 87 88 87 87 85 83 83 82 78 78 80 80 84 80 84 81 82 81 82 84 86 83 50 40 40 47 52 79 73 71 80 81 84
32 40 40 77 83 82 80 83 86 87 87 89 89 89 88 88 87 86 87 86 86 86 85 86 87 87 89 89 86 85 87 86 55 45 47 46 76 78 75 73 80 80 81
31 34 37 40 60 83 84 84 87 88 87 88 87 88 89 88 87 87 86 84 83 84 84 84 85 85 83 82 79 80 82 81 51 44 44 43 79 72 70 75 77 81 83
38 35 40 42 40 44 44 81 85 87 88 88 85 86 87 86 83 80 80 82 82 82 82 83 83 83 83 82 80 78 77 72 45 46 42 48 77 72 73 79 78 77 81
40 46 46 42 46 46 42 53 76 84 87 89 81 85 79 45 49 52 81 81 79 80 80 80 80 79 75 78 78 76 78 38 44 38 37 79 77 70 68 71 73 77 77
44 44 44 53 52 51 36 46 47 46 43 48 49 55 44 55 54 54 67 80 77 77 77 78 79 78 73 34 39 68 37 44 41 41 38 83 78 72 70 70 71 72 77
37 39 45 55 58 56 44 38 34 35 40 44 56 56 54 56 54 51 49 46 48 65 41 46 46 38 46 45 38 42 40 44 34 33 50 67 58 56 59 62 67 70 71
33 40 46 53 60 61 43 37 37 38 39 42 44 61 57 50 53 54 46 45 49 42 49 44 42 53 53 48 45 44 42 37 30 31 42 61 61 56 54 55 58 62 70
36 39 46 54 60 54 55 43 47 48 42 47 46 48 55 50 52 49 47 44 42 41 41 44 43 43 44 40 36 36 32 33 35 26 25 58 63 64 60 59 61 63 66
36 40 46 54 58 48 43 50 47 47 42 44 42 43 58 56 51 46 42 38 36 36 37 41 42 43 37 37 36 37 33 30 30 33 23 34 63 65 62 61 65 64 62
32 37 47 53 49 46 44 43 39 35 42 38 37 46 51 54 49 49 41 39 35 38 48 49 48 45 42 34 35 33 33 36 31 35 28 26 38 70 64 60 58 57 57
32 36 42 44 43 44 41 38 34 32 36 34 36 38 45 49 51 50 41 40 39 42 41 42 42 40 40 37 34 28 28 29 32 34 29 29 26 22 60 62 58 57 57
28 32 39 45 39 39 40 36 40 43 38 31 35 32 37 43 46 47 41 40 44 42 41 42 42 44 43 35 31 29 30 29 30 25 30 35 35 30 24 63 60 59 54
33 37 41 40 39 42 36 38 31 30 28 30 28 28 34 34 40 43 40 43 44 44 43 41 46 42 41 40 28 25 29 30 30 30 31 28 31 34 33 33 33 37 54
39 38 37 37 40 32 30 29 27 28 26 26 26 33 38 36 39 44 39 41 42 44 47 51 48 51 48 43 45 38 34 34 40 33 31 29 30 31 33 34 29 23 30
35 34 31 28 29 27 24 27 31 34 30 32 32 34 33 39 38 36 41 40 41 41 47 50 54 52 50 46 48 43 41 34 32 35 34 32 38 30 32 33 31 31 30
35 34 29 30 32 37 36 29 30 30 31 28 33 31 30 34 35 38 40 43 45 44 42 46 49 52 52 49 50 50 46 43 35 29 41 36 39 38 34 31 31 31 31
41 38 35 34 33 35 39 34 40 34 35 36 34 31 33 36 36 36 40 43 47 44 47 47 43 52 53 54 48 47 51 48 48 49 42 40 38 38 40 34 30 33 31
42 42 40 35 36 37 39 40 36 39 36 35 38 44 40 34 33 33 41 47 50 48 52 60 60 59 55 58 54 59 66 63 54 55 48 50 39 35 32 34 36 35 34
41 42 40 35 34 38 40 42 45 48 50 45 41 38 32 32 31 36 42 49 53 55 58 60 70 74 75 74 77 82 85 87 79 85 76 59 60 52 40 40 38 37 36

GFSSE_sfc_rhum_021.txt.gz
RH
36 52 88 85 84 84 85 83 81 83 86 84 81 81 80 83 84 85 84 82 78 70 67 67 68 68 71 69 74 75 76 76 76 72 70 65 66 72 78 77 76 53 79
35 45 91 88 88 86 86 85 82 83 81 80 83 80 84 85 84 84 80 75 72 68 68 67 69 71 73 79 79 80 80 79 78 75 72 67 66 71 74 75 82 61 76
36 43 54 90 91 92 88 84 82 82 81 81 81 82 84 84 82 80 77 72 71 70 70 72 73 77 79 80 77 79 81 80 79 77 76 40 67 72 74 75 76 76 74
32 35 54 91 90 89 92 91 91 85 84 82 81 79 80 82 79 78 77 76 75 73 70 71 75 80 81 79 78 76 77 78 78 78 45 40 37 70 72 76 75 77 74
32 38 62 88 87 87 87 87 88 89 89 88 84 81 78 76 76 78 80 78 73 72 73 74 79 83 84 84 79 76 78 79 79 68 39 47 45 63 71 70 74 77 80
28 38 75 84 84 83 79 82 85 86 87 88 88 86 85 83 83 81 80 78 78 76 78 78 79 78 79 82 78 76 76 77 84 41 44 43 44 71 69 69 76 76 81
22 31 41 82 82 78 77 79 82 83 85 86 86 85 83 82 82 81 78 79 81 83 82 82 84 80 82 83 84 85 86 84 56 39 54 74 68 78 74 72 78 80 80
25 28 36 74 80 80 80 82 84 84 84 86 88 87 86 85 85 85 86 85 84 84 83 85 86 87 87 84 81 82 82 84 54 47 54 57 73 75 72 73 78 81 80
24 26 29 36 61 81 83 85 87 86 84 84 85 86 86 86 85 84 83 82 82 82 83 83 83 83 80 78 75 75 77 77 57 35 35 59 78 73 73 72 74 77 81
25 27 29 31 31 38 51 82 84 86 85 83 82 82 83 85 80 77 81 81 80 80 80 80 80 81 80 79 76 75 75 80 51 34 52 68 74 71 69 74 76 76 77
28 33 32 29 34 35 31 53 78 85 84 86 79 81 75 45 44 54 80 78 77 77 77 77 77 76 76 79 76 70 76 38 36 32 44 78 75 71 69 69 72 75 77
32 31 33 40 39 36 25 35 37 34 36 40 41 45 37 48 48 46 64 78 76 75 74 75 76 74 76 34 43 71 41 34 36 30 39 76 70 67 68 69 71 72 73
28 28 30 46 45 41 36 29 27 28 32 36 44 47 44 46 47 43 42 44 49 67 41 55 48 40 41 42 36 37 34 35 30 27 52 62 56 56 57 60 64 69 71
24 26 32 44 50 45 32 28 29 28 33 33 39 44 46 41 45 45 38 38 39 33 39 39 38 42 47 45 41 41 38 33 25 26 43 59 54 55 54 55 58 61 68
24 25 29 41 52 43 44 34 36 38 34 40 37 40 41 42 46 41 41 37 35 33 34 36 36 36 39 39 37 35 33 32 32 28 25 62 58 64 58 55 59 62 64
23 26 29 36 49 43 34 39 38 38 35 35 34 36 42 44 48 43 40 37 34 30 30 35 38 39 39 36 36 36 35 30 27 30 25 38 64 63 61 58 61 61 59
22 24 29 36 43 44 36 34 31 29 32 30 30 37 38 41 42 45 40 38 35 36 46 40 39 38 38 36 36 33 32 36 33 32 30 26 40 68 66 63 56 54 54
22 23 27 33 41 42 33 31 28 26 30 28 30 32 36 40 42 45 39 40 39 42 39 38 38 38 38 36 38 34 31 29 31 33 31 30 25 25 63 64 58 55 54
22 24 28 36 41 37 34 30 32 35 32 27 30 29 31 36 38 42 40 40 45 41 44 42 41 44 42 40 36 35 35 30 32 25 31 35 36 30 26 69 66 63 57
29 29 31 36 38 36 33 33 28 27 25 26 26 25 32 34 37 40 39 42 41 40 41 42 50 45 46 45 35 34 40 33 32 34 30 27 31 38 35 37 41 40 63
33 33 34 36 39 31 28 28 25 27 25 26 24 31 35 34 37 41 36 37 40 38 44 50 48 52 50 48 48 47 44 44 43 35 35 33 32 32 39 35 34 29 38
32 30 29 28 29 26 23 27 31 33 29 29 31 33 32 34 35 34 43 38 41 39 47 50 52 48 48 48 52 50 54 44 38 38 36 38 44 33 33 37 38 37 30
34 31 28 29 30 34 34 26 28 28 29 27 28 29 29 35 36 39 42 39 44 45 43 49 49 52 50 48 52 52 58 54 44 36 45 42 44 41 38 35 40 36 34
38 35 32 31 30 32 37 32 38 33 34 33 35 33 36 41 37 32 33 36 45 46 51 51 41 52 55 52 46 39 54 67 76 72 46 51 48 46 52 40 36 35 35
38 39 36 31 32 34 37 38 38 40 37 36 38 42 39 33 31 29 32 39 47 46 49 55 61 66 60 65 66 69 66 58 59 76 74 58 57 53 51 57 44 36 35
37 38 36 32 29 31 36 40 43 46 44 38 37 37 33 34 32 35 33 42 48 51 54 63 65 71 73 72 74 81 88 94 93 95 97 92 95 86 80 70 61 54 49

GFSSE_sfc_rhum_024.txt.gz
RH
56 72 91 89 87 88 87 86 86 88 87 86 84 84 86 87 87 85 82 80 77 73 67 69 74 74 74 77 77 80 84 84 84 81 76 68 67 70 75 84 82 60 83
58 72 94 93 90 89 87 86 86 86 86 86 86 88 88 88 84 80 80 79 77 71 70 73 74 78 78 77 79 81 82 85 85 83 81 75 70 69 72 84 84 76 82
58 58 73 94 93 92 90 89 87 86 85 85 87 88 86 83 81 78 77 76 74 72 71 73 76 79 78 79 79 77 78 82 84 84 83 72 73 78 72 80 83 82 80
48 55 69 92 92 92 92 93 91 87 86 86 84 86 84 81 79 77 78 78 75 73 72 74 77 80 81 80 78 78 78 80 82 82 68 50 57 77 72 75 77 77 78
52 62 75 88 89 89 90 91 91 90 91 90 87 83 82 79 79 82 80 78 76 75 75 76 79 82 82 84 82 78 77 80 84 79 58 54 61 84 75 72 75 79 82
51 62 79 86 86 85 85 87 87 88 90 91 90 87 85 83 80 80 79 79 78 77 78 78 78 77 79 81 81 81 83 84 85 64 53 73 80 83 71 75 81 80 80
42 54 64 86 85 84 82 81 86 88 90 89 88 86 84 83 82 83 82 84 83 82 82 82 82 83 86 86 85 85 86 88 84 68 57 84 87 70 76 73 79 82 81
34 46 54 80 85 85 86 87 87 88 89 90 89 87 84 84 85 84 84 83 83 83 83 85 86 85 83 81 79 81 83 84 66 62 58 84 80 75 72 72 80 80 81
29 36 49 62 76 84 86 87 87 87 87 87 87 87 86 87 87 84 83 82 81 81 81 81 82 82 80 78 77 79 81 82 81 65 52 75 80 74 71 75 76 80 81
33 31 40 50 56 67 77 86 87 86 86 85 84 84 85 84 84 84 85 81 79 78 77 77 78 79 80 81 80 78 80 81 74 63 65 83 77 70 67 70 73 77 82
32 43 44 40 50 59 62 70 84 85 85 86 83 82 84 71 73 71 79 81 77 77 77 76 75 78 81 83 84 84 80 66 55 52 74 82 74 69 68 69 72 74 77
41 41 46 54 54 46 28 66 69 58 69 71 65 66 63 64 64 56 71 81 80 80 81 80 80 82 80 66 78 83 78 58 52 49 81 79 67 62 63 69 72 73 75
37 37 45 60 56 54 53 48 51 52 58 65 67 63 66 61 70 71 81 80 87 86 78 79 77 80 63 66 63 65 59 54 56 49 70 72 62 55 55 60 64 68 73
32 36 49 58 62 56 53 51 52 52 58 58 61 62 69 70 72 67 67 62 64 62 61 61 63 64 61 62 61 59 56 56 50 49 72 68 61 51 52 57 60 63 67
32 33 42 58 66 61 57 60 59 60 62 61 60 62 66 66 73 69 67 65 63 59 57 62 59 58 61 58 58 55 51 52 50 48 61 65 63 57 54 55 58 62 65
28 36 44 52 65 59 54 57 60 62 62 63 60 60 58 67 72 70 68 65 63 61 61 62 62 65 64 60 58 56 51 49 47 49 49 67 68 70 64 59 57 60 66
37 33 47 80 58 62 51 52 51 52 48 52 55 55 52 57 64 65 69 67 63 65 66 65 65 63 64 56 57 58 58 55 53 50 51 54 64 73 73 66 64 61 58
32 36 38 33 56 61 55 52 47 48 52 50 50 53 53 53 57 66 68 69 68 70 69 69 69 66 66 65 64 62 55 52 52 53 51 50 52 44 70 75 72 63 60
37 35 37 43 52 55 53 47 51 50 51 50 56 51 58 52 56 63 66 69 69 68 70 69 64 71 70 68 58 57 61 60 54 39 46 51 54 50 56 70 75 72 69
46 41 40 47 57 63 53 50 49 48 47 49 49 52 54 52 58 64 62 66 67 65 66 67 72 70 71 70 51 49 55 55 58 61 54 45 52 50 50 57 75 73 74
46 45 46 52 51 48 47 48 50 53 51 49 46 50 52 51 50 60 61 61 64 64 68 67 69 69 68 70 70 64 61 62 61 52 55 56 49 48 50 54 59 51 59
42 41 39 38 44 42 41 45 51 54 51 50 50 48 48 50 52 50 61 60 62 65 67 70 71 71 69 71 74 69 70 62 58 51 50 48 50 44 48 47 48 47 51
48 47 38 40 42 48 53 43 47 49 52 49 51 50 48 58 57 58 62 63 65 66 70 70 68 70 72 71 73 78 76 74 70 62 59 74 77 76 59 47 45 45 51
52 50 43 41 40 42 50 52 58 55 52 54 55 51 48 55 55 50 52 58 64 70 72 72 64 82 80 84 78 72 79 85 94 83 73 65 80 82 88 91 87 68 55
53 54 49 42 39 44 48 54 60 61 59 55 58 59 57 57 55 50 52 60 68 70 72 84 79 80 80 84 86 86 84 81 91 87 93 86 77 77 85 91 92 90 84
54 51 51 44 39 44 46 52 56 60 61 61 61 62 60 55 52 54 50 64 67 72 75 76 76 80 76 80 84 87 91 89 92 94 96 93 95 91 80 89 86 88 90

GFSSE_sfc_rhum_027.txt.gz
RH
92 94 92 90 90 89 89 90 90 90 89 88 89 90 90 88 85 84 83 82 79 75 73 74 78 77 77 76 78 80 81 84 84 82 76 70 68 70 76 83 78 72 86
90 90 93 92 90 90 90 90 90 90 88 89 89 91 90 87 84 82 83 81 78 72 73 76 79 78 78 78 78 79 81 85 84 82 79 74 72 72 76 86 83 80 85
84 87 89 94 93 93 92 90 89 88 88 88 88 89 87 83 81 80 79 80 76 72 72 75 78 79 78 79 79 79 80 84 83 82 80 72 79 73 74 81 85 81 83
75 85 89 94 94 94 94 93 91 88 87 89 89 87 85 81 80 80 80 83 79 76 75 77 78 82 83 84 83 80 79 82 84 84 77 62 67 79 79 77 79 79 80
80 83 86 92 92 92 93 93 93 93 93 90 88 86 85 82 84 82 81 84 79 77 78 77 76 77 80 85 85 83 83 84 86 79 77 71 86 70 75 74 73 80 80
88 92 88 89 89 88 89 89 90 91 93 92 92 89 85 82 80 80 83 82 80 80 79 79 78 80 86 89 88 86 88 88 88 86 74 78 81 76 79 75 82 80 82
85 89 86 89 88 86 84 84 89 91 92 91 90 89 85 84 84 86 87 86 84 82 82 83 85 87 87 87 83 84 85 86 83 86 79 90 80 62 69 70 78 80 81
70 81 78 86 87 87 87 87 88 89 91 91 91 90 87 87 88 86 85 83 83 83 83 83 83 83 83 82 82 82 82 83 73 82 83 92 83 73 70 69 80 80 81
59 74 84 83 83 88 88 88 88 88 88 87 87 88 87 89 90 88 86 82 81 81 80 79 80 82 82 83 83 83 83 85 88 78 63 88 82 75 73 77 77 81 82
52 60 73 82 83 90 91 88 87 86 86 83 84 84 84 86 87 88 85 84 81 79 77 75 79 80 82 83 86 87 86 85 76 70 84 92 78 70 69 72 73 75 78
46 55 66 70 77 83 87 82 87 86 85 84 84 84 86 85 83 86 84 82 80 80 79 78 78 80 81 81 80 82 83 87 74 66 90 83 74 66 68 70 71 73 75
50 54 56 60 75 75 52 82 88 80 87 87 84 87 85 86 86 74 81 81 80 81 82 81 80 80 82 82 75 82 90 79 66 59 85 81 72 64 64 67 72 74 75
46 54 60 55 56 59 60 80 86 84 90 89 80 70 70 73 79 84 92 88 94 87 89 85 87 88 84 81 72 74 71 63 64 59 73 80 69 57 56 58 63 66 71
50 55 62 62 58 63 63 63 66 67 73 79 75 69 73 83 73 76 77 75 80 85 91 87 86 76 79 69 69 70 64 60 60 60 76 74 69 54 51 53 58 62 66
47 55 63 64 67 61 60 66 63 68 70 69 72 69 70 78 74 76 72 72 69 69 68 67 66 63 66 63 61 64 61 56 56 57 67 72 69 62 50 48 52 57 63
41 57 63 65 76 68 63 60 66 67 67 70 74 68 65 76 75 78 72 74 71 71 72 72 69 70 70 68 67 62 60 57 52 53 57 68 71 68 64 53 53 55 59
45 65 71 84 77 79 66 56 60 70 54 66 64 64 64 64 65 70 75 77 76 76 74 73 72 76 74 67 69 68 66 64 60 53 52 61 68 74 73 72 62 58 61
56 59 73 77 91 96 76 56 55 58 60 56 64 68 61 61 62 70 71 73 76 76 75 75 78 78 78 78 75 72 70 65 61 56 50 56 61 55 73 76 73 72 66
50 52 66 86 92 86 80 75 65 55 52 55 59 65 60 62 66 71 72 72 73 78 79 78 76 83 83 78 69 68 72 72 70 53 55 54 60 60 58 70 76 80 75
55 60 55 57 72 76 74 64 64 61 60 60 61 61 56 63 57 60 63 67 70 71 74 77 77 72 80 79 60 60 78 78 75 76 67 51 56 57 58 60 69 70 79
48 44 49 54 58 50 54 55 57 59 57 57 57 50 48 56 58 63 67 63 65 68 73 72 75 78 73 79 86 73 81 75 74 79 76 73 72 57 55 59 62 66 66
54 50 50 49 51 53 56 59 59 61 58 58 62 61 62 61 59 55 69 71 71 74 74 77 77 78 84 82 89 86 77 71 72 69 75 77 87 85 76 64 60 64 60
59 52 49 51 52 55 55 58 59 61 62 63 60 58 60 61 62 60 61 68 70 77 78 78 88 93 97 92 88 93 97 95 84 73 74 88 94 91 88 91 85 83 76
63 59 51 48 49 52 54 61 64 70 68 70 68 65 61 62 58 55 61 66 74 79 78 89 82 91 89 94 90 75 83 86 95 80 82 82 81 81 92 92 96 90 93
59 57 52 50 51 52 59 62 69 64 65 64 67 70 68 65 61 58 57 64 70 81 91 88 87 77 78 78 85 96 94 92 96 98 91 93 84 81 88 92 94 94 88
62 59 57 54 51 56 56 57 61 64 68 71 72 74 71 68 67 64 57 75 85 88 88 83 81 79 82 83 90 94 95 83 87 92 90 95 94 91 79 91 90 92 88

GFSSE_sfc_rhum_030.txt.gz
RH
96 96 92 89 89 90 91 91 91 91 90 91 91 90 88 87 86 86 84 83 81 76 75 78 78 78 77 77 78 80 80 81 83 78 75 69 68 69 73 80 83 77 82
96 94 93 91 91 91 91 90 90 91 90 90 90 89 87 86 85 82 80 79 78 73 74 78 79 78 78 79 79 79 79 83 83 82 75 70 73 66 69 78 84 79 82
96 90 90 94 93 92 90 90 90 90 88 87 86 86 84 82 81 79 79 80 78 75 75 78 78 79 80 81 80 79 79 81 84 83 76 71 83 70 76 81 81 82 80
92 94 94 96 95 94 94 92 89 88 88 88 86 84 82 82 82 80 80 85 80 78 76 76 77 78 81 84 82 82 82 82 85 84 76 70 73 69 70 75 75 75 75
94 93 93 95 95 95 94 94 94 91 91 91 89 84 84 85 83 81 82 85 80 78 77 75 75 77 81 84 84 84 83 84 86 80 84 83 89 76 72 71 72 76 80
96 95 94 94 93 92 92 92 93 93 93 93 92 88 84 82 80 82 84 84 82 80 77 78 80 84 87 87 85 82 83 83 84 88 84 82 87 62 72 76 78 80 81
94 94 92 91 89 88 85 86 92 92 92 92 91 89 84 82 84 87 87 85 82 80 80 81 83 83 83 84 82 82 84 85 84 87 90 91 91 78 72 73 78 78 78
89 93 85 87 88 88 88 89 91 91 92 92 91 90 87 87 87 84 84 82 81 81 80 79 79 79 80 82 83 85 86 87 81 83 80 93 85 71 71 73 77 79 79
82 91 94 91 86 87 87 87 88 88 89 89 88 89 89 89 89 87 84 81 79 78 76 74 76 78 80 81 82 82 85 86 91 76 64 88 84 76 74 76 78 80 82
78 83 94 94 90 92 92 88 88 87 87 86 85 86 88 88 88 87 85 83 81 78 75 74 76 77 78 80 79 80 83 84 84 75 85 93 83 72 69 72 74 76 78
66 77 86 87 88 91 91 85 87 87 87 86 83 85 90 90 90 89 85 82 80 79 78 77 78 77 78 80 80 80 83 88 82 69 86 85 80 72 69 71 72 74 75
64 70 72 81 83 86 63 87 88 82 87 87 87 88 89 91 91 85 87 82 81 80 81 81 82 83 83 88 84 79 84 79 77 62 78 84 79 69 63 67 72 74 75
55 62 69 75 82 78 68 88 92 92 95 94 90 92 92 87 94 92 93 94 94 87 93 88 90 91 88 89 85 81 76 72 72 63 63 82 76 64 58 57 62 65 69
57 59 60 67 76 72 72 84 87 88 90 92 88 80 85 90 82 89 94 91 90 86 92 94 94 84 81 79 75 78 76 73 67 61 68 78 75 64 56 52 54 58 64
55 55 60 65 69 67 69 73 73 77 83 85 80 74 80 79 79 80 80 78 77 77 76 74 74 70 70 68 67 67 67 68 64 63 67 73 77 69 57 52 50 51 55
52 62 77 74 80 82 68 64 66 76 72 80 79 75 75 81 79 80 76 77 76 80 81 80 77 78 79 79 76 73 71 69 64 61 61 65 78 76 68 56 52 51 52
56 71 70 88 85 81 77 72 63 68 70 78 73 72 72 75 76 76 77 76 77 82 80 80 79 82 80 73 78 75 74 72 73 68 61 59 65 79 76 71 67 60 56
60 71 80 78 82 85 88 89 76 62 64 69 72 75 69 68 71 76 73 74 79 80 79 80 83 81 82 83 81 72 79 75 70 69 68 63 60 55 72 76 73 71 68
73 85 94 93 90 85 91 84 74 69 66 68 70 74 66 69 68 72 72 75 75 71 75 78 76 84 82 76 63 65 74 81 76 61 71 66 66 60 60 67 77 76 73
63 75 82 87 87 89 87 79 75 69 62 66 68 63 68 66 66 70 72 71 71 72 76 77 77 78 81 80 64 61 84 83 87 87 83 72 73 68 66 61 67 70 78
53 58 70 77 70 69 72 74 68 63 64 68 64 66 66 64 62 67 70 70 73 75 79 79 84 80 82 89 93 77 85 77 81 80 81 85 88 85 88 86 74 70 65
78 66 64 59 57 55 62 65 65 66 69 67 66 67 65 62 61 53 68 68 72 80 78 81 88 92 95 94 96 97 93 70 84 59 77 88 94 85 77 71 85 90 78
68 65 57 56 56 59 61 62 66 68 70 67 69 69 66 64 63 65 66 71 73 79 81 89 91 88 95 92 86 78 81 93 80 73 58 89 90 90 89 83 76 84 92
63 58 56 55 57 57 61 65 65 69 66 73 75 72 69 65 64 63 65 70 76 86 92 93 85 90 84 81 82 72 79 86 94 86 81 65 83 74 86 93 94 91 90
58 58 60 56 56 61 65 68 72 67 74 76 78 71 67 67 64 62 71 82 88 92 93 89 88 88 90 90 94 88 95 95 97 95 96 92 83 85 86 90 92 94 92
67 66 64 60 61 66 69 72 76 76 76 75 70 70 72 72 70 75 79 87 90 92 92 93 92 91 94 93 93 94 95 95 92 83 90 91 96 91 85 89 91 93 93

GFSSE_sfc_rhum_033.txt.gz
RH
95 97 91 91 91 92 92 91 91 92 93 92 90 89 88 87 85 86 84 84 82 76 77 79 79 78 77 77 78 79 79 79 80 77 74 70 69 63 72 84 83 79 80
96 97 93 92 92 91 91 92 92 94 92 86 86 86 87 85 82 80 79 78 77 75 77 79 79 79 78 79 80 79 79 81 82 80 76 68 71 65 72 82 81 81 79
91 93 90 93 92 92 91 92 92 90 87 85 84 83 83 82 80 79 80 81 79 78 75 76 77 79 81 82 83 82 82 82 82 81 74 80 85 67 70 78 78 80 79
91 97 96 96 95 93 92 93 91 88 87 86 84 83 83 82 81 81 82 83 78 76 74 73 73 75 78 80 82 82 81 82 83 81 82 75 79 70 63 72 74 74 74
96 98 98 97 97 96 95 93 93 92 92 91 88 85 85 84 82 81 83 83 79 76 72 71 74 80 83 85 84 81 80 81 82 81 90 85 91 77 68 68 70 75 78
99 98 97 97 96 95 94 94 93 93 94 92 91 87 84 81 79 81 85 83 78 74 73 75 78 80 82 82 81 79 81 82 80 86 87 83 89 71 66 76 79 78 79
98 97 96 95 94 92 90 92 94 95 95 94 92 88 82 80 82 85 85 82 78 77 76 76 77 78 80 81 79 82 84 85 89 89 86 94 95 81 72 73 81 78 78
93 95 92 90 90 90 91 92 93 92 93 92 92 90 86 86 86 82 82 80 78 76 74 72 73 74 77 79 78 80 83 85 81 81 73 88 88 78 71 73 77 79 79
92 95 95 94 90 89 90 91 91 91 90 90 90 90 90 89 88 85 82 79 76 74 71 71 73 74 76 77 77 79 83 84 82 78 67 84 82 74 66 66 73 78 81
93 94 94 94 94 94 94 90 90 90 89 88 88 88 88 87 86 85 84 82 79 76 74 73 74 75 76 78 80 81 84 82 83 74 78 93 81 77 70 68 70 76 80
78 91 94 95 93 92 90 85 87 88 87 88 86 86 90 93 92 90 86 84 80 79 77 77 78 80 80 82 83 83 82 85 81 73 68 76 78 74 71 72 75 75 77
76 81 93 92 90 89 70 90 91 86 90 89 89 90 91 92 93 88 90 86 82 81 82 84 85 86 88 92 89 82 83 79 79 69 66 73 73 71 68 64 67 69 73
61 71 79 83 86 85 77 94 93 94 94 93 91 91 94 91 96 96 97 95 96 86 95 92 91 94 90 91 89 89 83 79 80 70 62 70 74 64 58 59 60 60 65
66 68 74 82 84 84 83 85 88 92 93 94 93 92 96 97 94 92 97 93 89 83 83 87 87 81 75 74 75 76 76 80 80 72 68 73 79 65 55 53 54 55 62
61 65 71 79 85 77 80 88 90 89 88 88 90 84 86 86 84 85 84 83 83 82 83 83 82 79 80 79 78 77 76 76 74 73 74 72 76 73 63 55 53 53 54
56 63 73 78 81 78 74 78 80 84 87 88 88 82 80 82 83 83 78 78 80 85 86 85 84 84 82 80 73 76 74 76 76 74 72 72 73 75 72 64 58 55 53
60 66 74 84 90 86 79 73 74 80 77 84 83 78 79 82 82 79 82 80 84 83 79 79 78 77 74 72 73 74 75 75 73 75 75 72 71 72 78 74 68 65 61
70 76 89 84 90 89 93 91 82 70 71 77 77 80 76 78 78 80 79 80 80 75 78 79 79 75 77 80 82 77 78 76 76 75 75 78 76 66 68 74 75 71 71
91 88 97 94 96 94 87 87 78 72 74 74 75 74 72 71 73 77 78 79 77 77 81 79 77 83 80 81 75 73 78 85 83 75 80 80 85 84 78 73 74 76 77
88 87 90 91 93 93 83 79 75 63 64 66 71 67 66 65 68 70 69 69 66 76 80 82 81 80 84 93 71 75 85 85 89 88 83 81 81 80 74 80 86 81 75
81 84 84 81 75 70 78 86 81 77 71 74 64 66 64 63 57 61 65 69 76 77 81 81 85 86 92 93 95 84 89 86 83 68 77 94 83 76 70 68 74 84 90
81 72 64 57 59 60 62 68 69 73 74 73 71 68 64 63 62 60 66 67 67 73 79 82 92 94 96 95 92 96 89 69 74 56 72 86 92 86 68 65 67 77 91
70 66 59 58 57 61 65 68 70 72 77 74 72 72 70 67 66 66 68 74 80 86 91 93 94 92 96 93 90 85 86 92 91 78 60 83 90 80 86 86 70 80 83
70 67 62 61 61 62 65 64 64 66 66 78 80 76 70 68 66 68 75 83 90 95 93 94 86 92 93 94 91 83 90 91 97 94 82 76 77 77 85 87 88 88 88
64 68 67 64 65 69 70 72 74 72 79 80 74 68 67 66 68 75 81 85 87 92 92 92 93 93 95 94 96 93 94 94 95 86 87 79 78 86 86 89 91 93 93
72 72 70 66 71 70 72 72 73 77 78 74 70 64 69 72 74 83 83 90 91 92 92 93 93 91 93 95 95 96 97 93 93 90 81 80 89 89 89 87 84 88 96

GFSSE_sfc_rhum_036.txt.gz
RH
96 97 91 92 92 92 90 90 92 94 91 90 89 88 88 86 85 85 84 84 82 76 75 77 78 77 76 77 78 79 79 80 80 78 76 70 71 64 75 82 82 75 80
97 96 93 92 92 92 91 92 94 93 89 85 85 87 87 84 82 80 80 79 78 74 72 75 77 78 78 80 81 81 81 82 82 80 74 75 75 66 69 80 82 78 80
90 96 94 93 92 92 92 93 92 89 84 83 83 84 83 82 80 81 82 82 78 74 74 74 74 74 75 78 79 80 80 80 82 80 78 80 82 70 68 78 79 80 77
90 97 96 94 94 94 94 93 90 86 85 85 84 84 82 82 82 82 82 81 78 74 70 69 71 75 79 80 78 77 77 78 79 77 83 80 80 75 67 72 74 73 73
90 92 98 96 95 94 94 93 92 91 91 89 88 83 84 83 81 80 83 82 76 69 67 68 72 75 78 79 78 76 75 76 76 77 88 84 89 79 70 70 70 75 76
93 95 99 97 96 94 94 94 93 93 93 92 90 85 83 79 78 81 84 79 73 70 68 68 71 75 78 80 77 77 79 78 78 79 79 90 91 84 73 76 82 79 78
98 99 98 97 96 94 91 91 94 94 94 93 92 88 81 79 81 84 82 78 76 71 69 69 70 72 75 78 77 79 81 84 81 79 74 83 92 80 75 72 80 80 79
98 98 96 94 95 94 94 96 96 95 95 94 91 89 85 84 85 81 79 77 74 72 70 69 72 73 77 76 78 82 83 84 71 73 70 81 78 80 72 70 78 80 80
95 96 96 96 93 93 94 93 94 92 92 91 90 90 89 88 87 84 81 77 74 74 72 73 75 77 79 80 82 83 85 84 77 73 63 83 81 75 68 67 73 78 82
94 94 95 94 94 94 94 91 92 92 91 89 88 87 89 87 85 82 81 79 76 76 78 79 80 82 82 84 85 85 85 79 80 75 67 72 73 66 68 70 71 74 76
86 93 95 95 94 93 92 90 89 88 87 88 86 86 91 93 92 90 85 82 81 81 82 83 85 86 86 86 84 84 81 82 80 76 68 67 65 59 63 69 73 73 74
85 89 94 94 93 92 74 92 92 89 92 92 92 91 92 92 93 90 91 88 86 85 84 84 84 84 86 90 90 83 86 82 81 78 70 69 64 57 57 62 72 70 72
74 80 88 92 92 92 81 94 95 96 95 93 90 92 93 92 96 96 98 96 95 83 87 87 86 89 81 82 82 84 81 81 83 79 72 73 68 63 57 55 64 65 68
70 73 82 86 87 90 88 94 94 96 96 97 95 93 96 97 96 95 97 93 87 85 83 84 85 81 81 80 79 79 77 79 80 79 77 77 73 68 64 60 58 62 65
67 70 78 84 89 84 85 92 92 95 96 94 95 93 94 95 91 90 86 87 87 88 89 86 84 81 78 75 72 72 71 76 76 77 80 76 76 70 67 65 62 58 60
62 69 78 84 89 84 82 85 90 92 93 94 95 88 85 88 88 89 86 85 86 86 84 83 82 79 76 75 67 70 71 74 74 77 77 78 77 73 70 68 67 66 62
64 69 81 92 92 94 89 88 86 81 82 90 86 84 83 85 86 86 84 82 82 79 80 78 76 75 74 70 72 72 73 73 74 78 81 81 82 79 77 76 74 72 70
74 93 96 91 96 94 90 92 87 75 78 84 81 78 78 77 78 78 77 78 79 79 81 79 79 77 77 78 81 77 77 77 81 83 78 85 88 78 80 73 75 80 78
94 96 98 97 96 96 94 91 91 80 71 82 75 68 69 68 70 70 72 75 74 75 77 78 79 83 81 86 78 78 81 83 89 67 77 84 83 77 67 63 66 69 75
96 95 96 95 96 97 93 89 78 66 72 72 69 67 63 62 63 65 67 70 72 71 76 80 80 81 85 92 73 78 83 87 79 74 80 75 75 76 71 65 67 65 72
89 87 93 97 95 89 91 86 82 86 75 72 68 65 66 65 65 67 68 69 75 76 80 82 89 91 93 94 95 82 89 88 73 65 83 87 79 72 68 68 66 64 76
87 87 80 68 65 63 67 71 71 75 77 74 74 72 70 69 66 62 72 77 81 86 89 93 94 95 96 94 91 92 82 73 75 65 67 78 87 81 69 68 74 69 80
67 63 59 60 60 64 69 74 78 79 79 76 76 74 72 68 68 71 76 82 88 91 93 94 93 91 96 93 92 86 88 90 93 77 73 81 87 82 81 82 73 74 82
70 68 64 62 63 65 69 67 67 71 74 85 81 77 71 67 70 76 80 85 86 91 87 93 88 94 92 93 91 83 92 95 98 95 79 73 82 74 86 88 87 82 87
73 75 73 68 68 72 72 72 78 82 87 84 78 71 70 68 72 78 80 83 85 91 93 92 92 92 95 95 97 96 94 94 94 96 89 70 69 77 83 88 88 88 87
76 76 74 70 74 72 74 74 76 80 81 76 73 71 72 74 74 80 81 89 90 92 92 93 93 91 93 95 97 97 98 93 82 89 88 86 98 86 82 86 88 87 88

GFSSE_sfc_rhum_039.txt.gz
RH
74 72 91 89 90 90 91 93 93 92 91 89 89 88 88 86 86 86 85 84 80 73 75 76 76 75 76 78 78 79 80 81 81 77 74 72 70 66 73 82 77 50 77
73 73 93 90 91 90 91 93 92 91 89 86 87 87 87 85 83 81 80 82 76 72 74 75 74 74 74 76 78 78 79 80 81 79 77 70 74 70 68 78 81 57 76
78 72 72 93 92 91 92 92 90 88 84 82 83 83 82 81 81 83 82 79 75 73 69 68 70 73 75 75 75 74 74 75 75 76 74 50 56 75 67 80 80 76 75
73 72 72 95 93 93 93 92 89 85 84 85 83 82 81 82 83 82 80 82 74 67 65 65 67 68 70 72 72 70 70 72 73 74 51 53 56 76 72 71 71 71 73
73 72 75 95 95 94 93 92 90 90 90 89 87 82 82 81 78 80 81 80 71 65 64 64 66 69 72 74 74 74 74 76 72 55 49 58 56 68 69 74 68 73 78
74 72 88 95 95 95 93 93 93 92 92 91 88 85 81 76 77 81 79 77 68 64 63 64 66 68 72 78 77 76 78 77 67 41 43 52 58 77 72 75 80 81 81
86 82 80 96 95 94 92 92 93 93 93 93 91 87 80 78 80 79 77 75 71 66 65 66 68 70 76 79 77 79 82 79 42 36 38 46 59 76 68 70 79 81 81
85 85 80 93 95 94 94 95 94 94 94 93 90 88 84 84 83 78 77 75 72 71 70 70 72 74 78 78 78 82 85 82 45 37 36 36 71 70 66 68 77 80 80
82 81 79 75 84 96 96 95 95 94 93 91 90 89 88 86 85 82 80 76 73 76 76 75 78 82 80 81 82 85 85 79 44 42 36 32 67 62 60 68 73 76 76
79 74 77 77 74 77 77 94 94 92 92 90 88 88 87 86 83 82 80 81 79 78 78 79 83 85 84 84 85 86 83 72 45 42 37 38 66 56 55 62 69 74 73
70 71 75 70 71 72 70 75 86 88 88 88 82 86 84 63 63 63 81 84 82 83 83 82 83 86 84 76 80 82 74 45 46 44 41 69 69 61 56 61 73 76 73
63 67 70 74 73 73 61 71 72 68 65 66 66 70 63 70 66 65 77 84 82 80 77 80 80 78 62 46 46 59 44 48 44 45 41 74 72 66 63 62 67 70 74
54 62 68 73 74 71 67 68 63 63 66 67 73 71 72 69 69 65 65 62 64 66 52 55 52 50 56 50 46 47 44 42 42 39 47 74 69 65 64 64 64 68 68
54 56 64 70 73 75 65 64 65 64 66 65 66 74 72 68 72 72 65 60 61 58 61 57 54 58 53 50 48 45 44 36 33 32 41 75 73 68 64 64 64 64 68
51 55 62 69 72 71 72 70 70 71 69 71 71 75 70 68 71 63 65 59 58 53 52 52 49 48 48 46 43 43 41 42 42 37 40 72 77 76 74 72 71 69 67
46 55 65 71 72 70 67 70 70 73 69 77 85 80 76 68 70 64 61 55 51 49 50 49 50 46 44 45 42 45 44 40 41 49 43 47 77 79 78 76 76 77 76
46 60 72 80 74 75 76 78 84 82 76 84 84 81 79 74 68 62 56 53 51 53 56 49 48 46 41 40 41 40 40 45 46 53 48 49 50 64 65 66 67 68 71
55 68 77 80 84 85 84 87 88 90 90 87 83 81 73 68 60 57 50 50 51 51 46 45 45 41 43 43 46 41 43 45 55 49 46 48 46 40 47 59 63 62 63
68 78 84 86 89 89 95 97 90 78 78 73 65 57 61 61 59 52 50 52 50 47 49 48 45 52 46 47 45 42 44 42 50 36 46 49 50 45 40 48 56 55 60
84 87 90 87 95 98 96 88 82 70 61 58 53 51 52 50 53 50 48 52 48 46 50 53 58 52 57 60 44 43 41 45 45 41 41 39 44 48 44 45 41 38 54
84 83 96 90 94 84 78 79 68 69 56 52 47 53 51 49 50 53 46 48 50 48 58 62 55 58 48 58 55 40 41 57 52 44 42 43 47 46 47 44 41 38 38
84 82 82 72 69 61 50 49 50 50 51 50 50 54 51 51 50 48 53 50 53 43 50 55 60 51 51 61 55 47 38 36 46 42 43 46 57 46 44 45 48 48 44
69 68 69 65 59 56 54 53 55 55 54 50 50 47 48 50 50 52 53 51 52 51 48 56 61 65 54 56 64 55 48 42 52 42 46 50 49 48 48 48 50 50 49
54 52 49 51 50 53 56 52 54 46 46 55 54 48 45 51 51 52 54 57 58 56 56 56 55 64 65 57 55 52 64 65 67 63 47 48 45 46 54 56 54 57 57
56 56 56 53 54 58 57 56 54 59 59 55 52 54 54 52 52 55 57 59 60 57 62 66 67 69 64 64 59 58 61 58 61 69 66 46 46 56 48 46 52 54 57
60 59 58 56 57 57 57 60 62 64 60 54 53 51 50 51 51 55 56 61 64 66 68 65 69 72 68 67 62 63 61 64 63 65 73 58 59 56 47 45 42 45 55

GFSSE_sfc_rhum_042.txt.gz
RH
50 54 92 90 90 92 92 93 92 92 89 88 88 88 87 85 84 85 83 81 77 74 72 74 74 75 75 76 77 78 78 79 80 78 75 72 69 69 70 76 80 40 75
51 56 92 90 91 92 92 92 92 90 89 85 85 85 84 83 82 81 80 78 74 72 71 71 71 72 73 73 72 71 72 73 76 76 75 69 75 69 70 74 81 55 75
55 56 62 90 91 91 91 91 90 87 83 82 82 82 81 81 82 82 78 76 72 66 66 67 66 64 64 66 67 67 68 70 74 75 68 31 40 73 68 76 78 74 72
58 50 53 94 91 92 92 90 88 84 83 84 82 81 81 82 81 78 78 78 69 63 62 60 60 62 66 69 70 71 72 72 70 72 35 35 36 75 71 71 72 72 72
50 46 61 93 92 91 92 90 88 88 89 88 85 81 81 79 77 78 76 76 69 62 59 59 60 63 68 72 73 74 74 72 72 48 30 44 36 64 71 70 63 69 76
50 48 82 96 94 92 91 91 92 91 91 90 88 82 76 76 77 76 75 75 65 62 62 62 62 65 71 76 77 77 77 72 74 25 29 42 43 71 67 70 79 79 81
50 53 66 97 95 92 92 92 93 92 92 91 89 84 78 77 75 75 75 72 69 66 66 67 69 72 76 77 78 79 79 73 28 24 25 31 41 65 65 69 72 75 75
67 60 65 91 94 94 94 94 93 93 93 92 88 86 82 80 78 74 72 71 70 70 70 71 74 76 78 79 79 81 82 80 30 24 23 23 65 60 57 66 75 75 74
66 62 59 59 78 95 94 94 94 94 92 89 88 89 87 85 83 80 78 74 73 74 73 74 78 80 81 80 81 81 80 74 31 28 24 27 69 62 56 58 65 72 74
63 52 48 50 50 55 63 95 95 92 90 88 88 87 86 83 81 78 79 78 76 75 76 78 80 80 77 78 79 80 77 73 29 27 25 40 72 66 63 60 61 67 72
56 54 50 45 49 47 46 67 85 88 87 86 81 85 81 44 47 51 79 81 80 79 79 80 80 76 74 72 73 71 75 28 28 26 25 74 69 65 65 66 69 71 72
43 42 43 48 50 49 39 50 50 47 46 48 48 54 45 53 48 48 67 80 78 71 74 73 71 69 55 31 30 47 28 33 28 28 27 71 66 63 63 64 67 67 73
35 37 41 53 56 50 49 44 40 41 47 51 58 54 55 53 52 46 44 42 45 55 36 42 40 36 44 37 33 36 33 30 26 24 39 70 69 66 63 63 65 66 68
35 38 43 50 57 56 43 42 46 44 48 48 52 60 58 54 60 58 46 44 46 40 46 42 39 45 42 39 37 38 36 32 28 27 35 72 74 72 68 68 69 70 72
35 39 44 48 52 54 54 50 53 53 49 57 55 62 60 69 64 51 51 43 44 40 38 40 38 36 38 37 37 37 35 35 35 28 29 75 76 74 71 70 70 71 73
36 42 47 50 52 52 54 61 59 62 61 57 66 77 78 77 65 52 49 44 40 39 38 39 40 37 35 36 34 36 36 34 34 37 30 32 72 65 64 65 66 66 67
36 47 54 58 57 59 59 57 58 58 72 78 73 77 74 64 60 55 47 43 41 41 42 39 41 35 33 32 34 32 32 33 32 38 33 32 35 63 52 57 59 60 61
37 51 60 66 69 68 71 76 77 81 75 75 71 73 67 60 54 50 43 45 45 42 40 38 36 36 33 32 33 29 28 29 29 36 30 36 33 28 46 50 52 54 54
40 53 66 68 72 76 77 94 94 82 71 60 53 55 56 54 51 48 45 45 43 39 40 37 33 34 32 29 26 23 26 25 24 24 32 37 36 34 31 46 47 48 47
50 58 71 72 91 97 97 94 87 58 53 49 46 45 46 45 46 43 42 44 37 32 31 35 39 34 34 36 30 26 30 28 28 32 32 26 30 36 33 36 35 30 47
74 72 72 78 91 92 67 63 51 53 45 42 38 42 42 41 43 45 35 35 33 33 39 40 37 37 33 36 40 27 25 26 41 35 30 31 32 33 36 34 34 32 31
68 69 68 61 64 57 47 40 38 38 36 35 38 44 42 44 42 34 37 32 36 33 39 42 44 39 33 33 46 40 30 25 22 32 31 32 38 34 32 34 40 40 38
65 62 53 50 49 43 40 39 40 42 42 39 40 38 40 40 36 36 37 38 39 37 36 43 42 45 40 36 39 45 45 37 34 30 35 32 38 35 36 35 38 39 40
51 45 37 39 39 42 44 38 40 33 33 39 40 38 36 38 35 34 37 40 43 42 44 42 35 47 45 43 36 32 42 46 62 59 39 33 31 31 36 36 35 36 37
41 41 40 38 37 41 42 41 40 42 42 41 41 45 41 38 37 35 37 43 44 42 45 50 51 50 44 46 46 48 50 45 46 56 62 39 29 28 30 33 35 32 32
45 46 43 39 40 43 44 46 47 48 43 39 38 36 33 32 32 36 37 42 44 46 48 48 51 53 53 53 54 55 55 56 47 54 60 52 45 34 30 29 32 32 31

GFSSE_sfc_rhum_045.txt.gz
RH
43 53 91 90 91 92 93 93 93 91 90 88 87 86 86 84 84 83 81 78 74 72 72 73 72 72 70 69 68 70 71 73 75 73 72 69 70 68 70 77 77 49 76
47 51 92 91 91 92 92 92 91 90 88 84 84 84 85 84 83 80 77 74 72 70 68 69 67 63 60 62 64 65 66 69 75 75 69 73 74 69 71 76 80 60 74
49 52 61 92 91 92 91 90 89 86 83 82 82 82 82 82 82 78 76 74 68 64 62 59 58 58 63 67 69 70 70 69 70 72 76 45 51 71 70 78 79 74 72
50 54 58 94 92 92 92 90 88 83 82 82 81 81 82 80 77 76 72 74 68 60 58 56 59 64 67 70 71 72 70 70 75 78 38 28 47 71 69 70 72 72 72
51 52 65 93 94 93 92 90 87 88 88 86 84 81 79 76 77 73 72 74 66 59 57 56 61 66 71 74 74 73 71 74 75 55 28 35 44 62 69 70 63 69 75
54 61 83 94 94 92 90 89 90 90 91 89 86 79 75 76 73 73 73 71 64 63 62 61 65 70 75 77 77 76 76 78 77 22 26 41 43 65 67 71 76 74 77
69 61 64 94 92 88 89 89 91 91 91 90 85 82 78 74 73 74 72 69 68 66 67 68 70 74 76 77 77 78 79 78 30 19 20 34 48 59 57 66 74 74 73
64 64 64 89 90 91 93 93 93 93 93 90 87 85 79 76 75 72 70 70 70 70 70 71 75 76 76 76 76 78 79 78 29 24 21 32 68 63 58 59 71 77 74
68 67 61 64 83 94 94 93 93 93 91 88 89 88 86 85 82 79 77 72 72 72 72 74 76 77 74 74 75 77 76 76 38 25 23 33 71 66 63 63 64 68 70
70 58 46 51 52 62 74 94 93 91 88 88 87 85 84 81 79 79 80 77 74 74 75 77 76 73 69 72 73 72 76 75 28 25 29 48 67 63 63 66 67 68 72
47 45 42 41 45 50 54 73 86 88 87 86 80 82 79 42 46 52 80 80 76 75 76 75 72 68 68 72 64 60 67 27 29 26 27 70 63 62 62 64 66 68 68
43 38 38 45 44 40 34 50 46 45 43 45 46 51 42 47 50 49 63 79 71 69 72 71 66 64 64 30 30 48 28 32 28 27 31 71 59 58 60 64 66 67 69
34 34 40 48 46 40 42 38 35 40 46 48 51 48 53 46 49 47 49 50 45 57 39 44 41 35 43 39 35 37 36 35 30 28 42 70 61 58 58 61 66 69 72
31 35 40 46 49 46 39 34 40 38 42 42 55 54 53 56 61 53 45 41 45 37 45 40 37 43 41 40 39 40 40 36 32 32 38 72 67 63 63 63 66 67 69
31 34 37 43 48 49 47 46 47 48 49 60 63 67 62 70 62 59 53 43 43 38 37 40 40 39 40 39 38 38 36 38 37 32 32 74 70 65 62 63 65 64 65
31 38 40 43 47 48 53 57 56 57 54 67 70 70 74 69 70 53 49 44 40 41 40 40 41 40 42 38 36 36 36 34 33 35 30 33 70 63 56 54 58 60 60
34 39 45 49 49 54 52 51 51 54 57 63 71 74 68 63 61 58 53 50 44 43 47 43 48 43 34 31 32 30 29 29 27 30 32 30 33 67 52 52 50 52 52
35 44 47 49 57 59 64 63 62 68 73 80 70 67 68 62 56 50 47 49 47 44 44 44 35 32 31 29 31 26 24 24 25 28 24 28 30 29 42 47 47 46 47
38 46 56 60 65 78 82 93 97 95 93 84 58 56 56 54 51 49 47 47 43 38 36 35 34 35 34 31 26 27 29 25 28 21 26 30 34 30 31 42 49 54 44
40 49 58 63 75 84 87 83 78 81 60 50 48 45 45 44 45 42 42 43 36 34 36 38 42 34 33 30 23 29 32 26 24 28 32 28 29 32 32 34 33 33 54
44 54 67 77 76 65 61 60 60 54 44 41 38 41 41 40 42 45 35 35 37 33 37 40 39 41 36 34 32 32 32 34 32 27 28 30 30 30 34 32 31 30 32
60 64 67 62 62 57 48 44 41 38 35 34 37 42 41 43 39 34 40 35 37 35 38 41 45 42 39 38 40 37 40 34 28 28 30 30 37 28 30 30 34 35 35
64 68 59 52 47 41 36 33 34 35 38 37 39 38 40 39 35 35 36 37 39 37 37 43 43 44 41 39 41 39 42 44 38 32 36 33 41 38 32 30 31 32 34
60 52 43 38 34 33 34 34 38 33 37 42 35 34 37 37 35 33 33 37 42 40 43 41 35 45 47 44 38 32 45 44 50 54 37 34 35 31 39 31 35 32 34
43 39 34 32 32 36 37 35 38 37 37 35 36 42 41 38 34 31 34 38 41 39 42 46 49 51 48 54 45 45 49 47 48 53 51 43 37 32 32 35 35 33 30
40 39 37 34 33 37 39 40 40 43 38 36 39 38 33 29 28 30 30 36 40 40 40 42 47 46 56 54 48 53 57 58 50 56 60 60 56 42 33 31 33 30 31

GFSSE_sfc_rhum_048.txt.gz
RH
58 73 92 92 92 94 94 93 92 91 90 89 89 89 88 86 85 84 81 80 77 71 70 68 65 60 59 61 63 66 67 71 75 73 73 70 68 70 71 80 71 62 81
62 66 93 93 93 93 92 91 91 90 88 88 88 88 87 86 84 82 79 77 73 65 61 58 58 60 64 67 70 70 70 76 78 77 74 74 72 68 72 80 81 74 79
58 69 74 92 92 91 90 90 89 88 86 83 85 86 86 84 81 79 76 74 69 59 58 58 62 65 66 69 71 71 73 78 78 79 76 76 68 70 69 79 80 78 76
57 56 69 94 93 92 91 89 87 86 85 85 85 84 82 80 78 72 74 72 68 60 57 62 64 66 69 72 72 72 74 78 78 78 66 58 56 72 69 72 76 71 72
54 59 81 94 94 92 90 89 90 90 88 87 86 81 78 76 71 71 75 72 69 61 59 63 66 70 74 77 78 78 77 76 75 64 46 52 54 64 70 74 72 74 78
65 78 92 94 93 90 90 91 91 91 90 88 84 80 76 71 71 72 76 75 68 64 65 67 70 73 79 82 81 80 79 77 74 34 43 57 59 60 61 73 81 81 80
87 81 85 96 92 90 90 92 92 92 90 87 85 83 78 73 73 76 78 77 74 70 70 70 72 75 78 80 79 78 78 79 54 37 47 59 72 64 60 63 76 81 80
85 87 75 90 91 91 92 93 93 93 90 89 87 84 80 79 78 78 78 78 77 75 73 74 77 76 76 76 75 76 78 79 50 41 48 70 75 66 63 66 73 74 76
92 81 76 77 91 94 94 94 94 92 90 90 90 87 86 84 82 81 80 78 77 77 75 75 76 76 72 71 69 70 75 78 61 43 41 63 72 64 62 65 68 74 76
93 79 82 80 83 86 87 94 92 90 90 88 85 84 83 81 82 81 82 80 78 76 75 73 75 76 73 72 68 59 70 72 45 42 56 74 66 57 59 63 66 68 74
92 78 64 62 73 81 85 87 89 89 88 86 83 82 83 63 70 73 78 81 78 76 75 73 72 70 72 74 73 56 64 48 46 44 61 72 59 53 54 59 65 68 71
71 51 56 63 68 70 54 77 76 71 68 66 65 76 70 72 66 56 74 82 78 75 76 75 71 71 72 54 58 58 52 53 50 47 67 71 59 54 55 59 66 69 71
48 50 53 65 63 59 56 60 54 60 65 71 72 70 68 66 71 76 85 86 79 78 70 68 62 56 58 60 57 60 56 54 57 50 63 72 60 55 56 58 62 65 67
44 48 54 61 66 66 54 56 59 56 67 68 73 69 84 89 82 76 81 77 70 64 61 64 66 63 61 56 55 56 57 58 54 51 61 75 66 57 54 57 60 62 63
42 49 54 61 65 63 67 71 76 81 84 86 85 86 91 91 86 84 74 69 66 63 59 64 59 58 59 54 55 56 52 50 50 51 58 75 70 58 55 53 54 55 57
39 47 52 57 65 69 70 71 71 77 82 88 89 86 84 85 85 85 87 68 58 61 64 63 62 61 60 56 50 49 48 50 45 46 49 62 71 62 55 54 51 49 49
41 46 54 60 66 69 66 68 72 70 75 82 85 86 82 86 90 86 85 69 66 64 63 63 62 56 53 44 44 43 44 39 37 39 44 43 61 69 59 49 45 45 46
42 48 54 55 69 70 69 68 71 76 83 86 83 78 76 72 73 71 69 72 68 64 65 62 59 54 55 52 50 47 51 43 36 44 40 42 48 43 64 53 45 44 45
48 51 61 69 76 86 89 92 95 92 91 87 78 73 69 66 65 68 70 70 65 60 63 58 61 62 58 54 42 41 54 49 46 30 40 43 48 46 48 50 57 57 44
54 61 67 82 85 88 93 92 83 78 71 66 66 64 63 60 59 64 66 62 56 57 59 62 64 62 63 61 37 40 54 55 48 53 47 42 46 46 47 47 54 49 57
61 66 78 85 82 83 80 75 72 72 64 63 58 58 61 57 56 59 59 56 57 59 60 58 62 64 66 62 62 54 55 49 53 45 50 49 42 36 41 51 50 50 47
62 73 75 73 75 71 70 62 64 60 57 54 57 60 57 58 52 56 56 58 59 60 61 66 66 71 65 66 65 60 61 53 53 45 53 48 51 52 42 37 45 48 50
70 77 75 66 68 67 58 54 55 57 59 57 60 61 58 54 50 49 53 58 61 62 65 68 67 67 70 66 65 70 68 74 63 59 53 50 56 59 56 50 44 44 45
73 69 67 64 62 53 52 50 56 50 51 54 56 53 55 52 48 45 48 53 59 64 65 67 53 71 71 71 68 52 67 71 75 73 62 58 56 49 54 59 53 49 46
68 72 67 57 47 48 50 52 58 57 59 57 58 63 60 62 55 46 47 54 58 62 66 67 69 68 70 72 73 75 74 76 75 79 77 69 58 59 55 52 57 51 46
67 63 55 44 41 48 50 53 58 58 56 58 58 63 60 60 51 48 46 61 62 64 65 66 67 66 70 73 76 79 83 86 82 77 83 78 74 65 58 53 52 52 51

GFSSE_sfc_rhum_054.txt.gz
RH
93 88 92 94 94 94 94 93 92 91 90 89 88 88 86 85 82 80 76 71 67 60 61 62 62 62 62 66 69 68 70 75 84 79 75 71 70 70 74 79 81 75 78
88 87 93 94 94 93 93 92 91 90 89 87 88 87 85 82 80 75 71 69 67 62 62 62 61 61 62 65 68 69 71 78 80 82 78 72 71 72 73 77 80 74 75
85 91 91 94 93 92 91 90 89 88 86 83 83 84 82 78 76 73 72 71 68 63 62 60 60 60 62 65 72 76 78 80 81 83 79 81 72 71 72 76 77 70 68
80 85 90 93 91 90 90 89 88 85 85 85 81 79 79 74 73 67 68 73 70 63 61 60 60 61 64 71 75 77 79 82 83 74 70 72 60 66 69 71 73 73 71
84 86 91 93 91 91 90 88 88 89 88 86 82 79 77 71 68 68 74 75 71 63 61 60 61 63 69 76 75 74 71 73 76 70 82 73 68 62 67 70 71 72 73
89 88 94 92 92 91 89 90 90 89 87 85 81 78 74 69 71 72 78 75 69 64 63 62 63 67 76 75 74 75 75 70 69 78 84 79 72 64 67 72 74 75 76
95 94 90 95 92 90 90 90 90 89 87 83 81 79 76 73 74 76 81 78 75 68 67 66 67 73 74 75 72 76 78 72 69 86 88 84 76 66 66 69 72 74 75
96 88 80 88 86 91 91 91 90 90 87 85 83 81 81 80 79 79 80 80 79 77 75 73 74 73 73 76 75 78 76 70 62 75 78 83 72 63 63 66 70 72 73
97 96 93 82 82 94 94 93 93 91 88 86 84 84 84 84 83 82 82 81 80 79 76 74 74 72 71 75 79 77 76 68 65 68 62 81 68 61 62 65 66 70 70
92 92 94 95 92 95 92 92 92 91 88 86 84 84 84 83 83 82 82 81 79 76 72 72 72 70 69 73 78 77 74 69 66 68 76 80 66 59 62 63 66 68 68
93 89 96 93 96 96 90 88 89 87 85 84 82 83 84 81 81 80 80 79 77 74 71 72 71 69 69 76 76 76 70 59 64 70 77 71 60 56 60 62 65 66 66
93 94 95 95 97 92 74 89 91 78 81 82 81 81 77 81 83 78 80 78 76 73 76 74 75 72 68 66 68 68 68 64 64 67 76 71 58 53 57 60 60 61 62
90 88 93 96 94 90 82 92 93 89 85 82 78 81 81 80 86 86 92 94 84 78 74 67 64 64 60 63 61 60 60 65 72 65 73 70 56 51 55 56 55 54 54
88 83 87 89 87 85 84 83 83 80 88 87 85 82 93 98 95 95 97 85 79 74 67 67 70 62 58 53 52 52 54 53 53 56 76 70 65 50 50 52 51 50 52
87 74 83 81 78 81 85 87 89 94 96 98 97 95 96 97 97 89 87 80 77 71 67 65 60 55 54 50 49 49 51 46 43 48 64 72 68 54 47 47 47 46 50
68 68 72 74 78 85 90 93 98 96 98 98 98 96 94 91 90 90 89 76 71 70 66 62 60 60 59 55 51 50 54 50 48 49 52 57 69 67 53 46 43 43 48
60 63 67 86 82 80 84 90 96 96 96 95 92 89 87 89 89 89 90 83 76 70 65 62 62 62 62 55 54 51 56 54 56 50 51 54 75 74 64 48 44 42 41
60 65 78 72 80 86 90 92 93 97 98 97 91 88 87 83 78 78 77 79 74 70 69 68 66 66 68 68 62 59 60 54 55 53 51 50 66 73 69 60 51 42 38
60 67 83 80 85 93 96 96 97 96 97 95 84 80 78 76 76 77 74 75 72 70 70 64 74 70 69 68 56 62 58 58 63 49 52 54 54 55 54 48 52 56 44
63 80 77 82 94 96 96 97 98 97 95 87 82 76 74 77 77 77 70 72 68 69 73 72 66 69 72 73 53 55 62 67 65 67 59 49 55 52 51 46 54 51 53
82 82 82 90 95 90 95 98 99 96 89 82 78 72 74 74 76 73 72 70 68 71 71 68 72 74 73 78 74 74 74 69 65 65 64 62 58 56 56 58 60 51 49
88 83 86 86 91 85 92 98 94 91 85 79 78 77 74 71 67 66 69 67 65 71 70 71 74 80 78 81 78 87 80 76 72 60 68 61 66 64 58 53 54 53 56
92 93 84 86 88 86 92 91 85 80 82 81 82 83 73 66 63 66 66 69 68 70 71 76 76 74 81 81 79 72 81 87 88 76 70 71 69 68 68 64 56 56 53
96 94 88 89 88 89 94 89 79 76 72 79 80 80 71 64 64 64 64 68 71 75 76 77 72 78 79 75 81 70 80 83 90 94 81 74 73 64 71 72 70 60 55
96 95 93 88 86 88 89 84 76 79 76 80 82 77 74 68 64 60 66 70 74 79 74 66 68 70 78 80 84 87 88 92 91 96 95 89 81 75 73 72 72 65 58
92 92 93 90 89 90 85 80 73 72 75 81 83 79 77 76 74 67 66 73 71 64 63 67 69 66 72 77 84 91 92 91 93 96 94 85 85 88 77 72 67 64 67

GFSSE_sfc_rhum_057.txt.gz
RH
95 87 94 93 92 92 93 93 91 90 89 88 88 86 83 81 78 74 72 70 68 62 62 62 62 62 61 62 65 69 79 83 81 78 75 71 70 72 74 75 76 73 77
90 83 94 93 92 92 92 92 91 89 88 82 83 84 82 78 75 73 73 72 67 61 60 60 60 60 66 73 74 74 76 84 83 82 77 72 71 72 73 75 77 67 69
90 88 93 93 92 90 89 89 89 86 82 79 78 80 78 76 74 75 74 72 68 59 58 59 59 62 74 79 84 78 79 84 83 82 78 87 71 66 69 72 74 71 70
87 88 90 93 91 89 89 89 88 84 81 79 78 76 75 72 72 71 72 73 68 60 57 57 58 61 67 76 80 84 82 79 80 74 75 72 60 66 67 68 68 68 69
87 84 91 93 91 90 89 88 88 88 85 82 79 75 72 71 68 70 76 73 69 60 56 56 58 63 71 77 75 76 79 78 80 79 89 79 73 64 69 73 75 75 73
90 89 95 94 92 89 88 90 90 88 85 82 79 76 72 68 69 73 77 74 70 61 59 59 62 70 76 79 79 74 78 77 79 90 89 81 73 65 67 70 73 74 76
95 94 94 95 91 89 89 90 90 88 85 82 80 78 76 75 75 79 80 78 74 68 63 64 71 73 73 74 78 75 80 79 84 90 89 84 74 64 67 69 71 73 75
98 96 87 93 88 87 86 90 91 89 86 84 82 80 80 80 81 81 81 80 79 77 75 73 75 77 76 75 73 78 75 70 67 78 80 83 70 64 65 67 70 70 69
94 95 97 93 86 81 92 94 93 90 89 87 86 85 84 84 82 82 82 80 79 78 78 77 76 78 79 78 78 74 78 74 72 74 67 84 67 64 64 66 68 68 68
97 98 98 95 92 98 95 94 93 90 90 88 88 87 86 86 85 84 83 81 79 78 77 76 77 78 81 79 79 77 74 71 70 73 78 80 65 61 62 65 66 66 66
97 95 95 95 96 97 95 91 90 88 87 85 85 85 88 89 86 80 81 79 79 78 78 79 78 77 74 74 75 76 71 69 69 73 80 71 59 58 61 64 64 64 63
95 92 92 95 95 94 79 94 92 82 86 86 86 84 85 86 85 78 82 80 80 79 78 74 72 69 62 58 57 59 62 63 63 72 81 71 56 56 58 60 60 58 57
90 94 96 95 96 92 88 96 94 90 88 85 81 82 82 83 90 92 95 95 87 75 65 61 58 57 52 53 52 55 51 53 61 64 80 71 56 46 53 54 54 55 55
94 91 91 94 94 94 91 93 92 84 85 85 82 83 93 96 97 97 96 89 75 72 68 64 65 57 54 50 51 54 50 51 54 55 63 76 66 46 48 50 49 53 53
87 84 88 96 96 91 91 92 92 93 94 97 97 94 97 97 98 94 86 80 77 68 63 61 51 55 55 52 54 54 52 54 52 55 64 58 67 59 46 47 44 45 49
82 81 89 91 86 91 92 91 95 97 98 98 98 97 95 93 92 90 90 78 72 66 63 59 58 60 62 57 55 57 55 56 53 56 62 68 67 66 52 46 45 44 45
77 74 85 85 83 89 90 94 98 98 97 98 97 95 88 88 89 88 89 82 72 66 65 64 65 65 65 56 57 56 56 56 57 56 57 68 87 77 66 52 45 40 38
71 72 77 75 87 91 95 98 99 98 98 96 93 93 88 85 82 84 81 80 74 70 70 70 68 69 71 68 65 63 58 60 57 56 56 57 64 58 57 51 47 41 39
68 80 84 88 90 95 97 98 98 96 97 95 89 90 84 78 78 76 77 77 72 72 74 69 75 70 72 70 61 62 64 68 63 50 54 55 55 54 54 49 55 58 46
74 88 88 91 96 97 98 98 98 98 96 88 86 83 79 80 74 73 75 75 72 75 75 70 68 77 76 74 57 59 75 72 69 67 62 53 59 58 58 57 60 54 54
90 92 92 95 97 94 96 97 98 97 93 86 81 76 78 79 74 72 74 71 72 70 70 68 75 74 77 84 77 78 79 73 72 69 70 67 60 59 59 62 61 59 58
88 89 93 90 95 88 88 98 96 93 89 83 81 80 79 80 74 69 71 69 72 76 73 74 75 82 82 84 78 88 77 75 75 69 72 67 69 68 61 57 60 57 61
92 92 88 88 89 84 92 93 92 84 84 83 85 86 81 73 70 69 68 72 72 74 75 78 77 72 76 80 80 72 78 84 90 80 76 75 75 73 72 68 62 60 56
83 84 84 87 89 88 94 92 89 84 82 84 84 86 79 73 70 67 69 73 75 79 79 79 75 77 76 70 80 74 83 83 92 95 85 80 80 74 77 78 73 63 57
85 92 92 94 92 91 94 93 90 84 81 84 86 83 80 75 72 69 72 75 78 82 74 68 70 71 77 73 82 87 90 94 93 96 97 92 90 82 82 80 79 70 61
94 96 96 94 91 91 95 95 89 85 80 84 88 87 85 82 77 73 71 74 66 66 65 68 69 66 74 80 86 92 92 92 93 96 99 96 95 90 89 79 75 70 71

GFSSE_sfc_rhum_060.txt.gz
RH
97 90 90 90 89 89 89 88 89 88 88 87 86 84 82 78 76 74 73 72 70 62 60 62 62 62 63 69 77 78 81 84 81 78 72 69 69 70 72 72 72 64 71
90 85 91 90 91 90 90 89 89 88 86 84 83 81 79 76 75 75 74 71 68 60 61 63 68 72 72 70 76 82 84 85 84 80 74 67 66 67 70 72 76 66 68
89 85 91 91 90 90 89 89 88 85 82 78 76 78 76 76 76 75 73 69 67 62 62 69 75 77 76 74 81 83 80 81 81 78 73 78 65 65 66 68 69 67 66
87 86 92 92 90 90 89 88 86 81 80 79 77 75 75 76 76 73 72 69 68 65 60 65 69 76 78 84 85 80 77 77 79 76 76 75 61 66 69 71 72 72 72
89 88 92 93 90 90 89 87 86 83 82 80 77 74 73 75 74 70 73 70 67 64 58 60 66 72 78 80 81 82 80 81 82 82 86 78 71 64 67 71 74 74 74
93 94 96 93 91 89 90 90 88 85 83 80 78 76 73 74 72 74 75 70 68 66 59 63 66 74 78 77 79 82 81 81 82 87 85 76 74 66 68 70 71 73 74
94 96 93 92 88 90 90 89 88 86 84 81 78 76 76 76 77 79 78 76 73 71 67 66 70 78 79 77 80 82 82 79 83 86 84 79 74 66 67 68 68 69 70
98 97 91 85 88 90 87 89 90 88 86 84 82 81 80 80 81 81 80 79 78 77 75 75 74 74 75 78 78 76 76 74 72 80 79 77 70 64 66 66 67 67 68
96 97 97 93 92 91 92 93 91 90 89 88 87 86 86 86 84 82 80 79 78 78 78 80 79 77 78 78 80 81 79 74 75 76 71 81 66 62 63 63 63 64 65
96 97 98 97 94 92 94 94 92 91 90 89 89 88 87 86 85 83 83 81 79 79 78 77 80 81 81 80 78 77 77 70 72 73 79 79 63 61 62 63 62 62 62
98 96 96 95 95 93 89 92 91 90 88 88 88 86 89 90 88 82 83 82 80 81 78 75 72 69 67 72 74 72 64 67 74 76 80 75 61 59 62 62 60 58 57
95 95 94 94 94 95 81 96 92 86 89 88 88 85 87 89 86 83 85 83 82 77 74 69 63 60 54 52 53 55 56 55 61 78 83 75 56 56 57 58 57 56 56
93 93 91 92 95 95 93 97 94 91 90 88 84 84 88 90 89 94 94 93 81 68 59 53 52 53 54 54 54 55 55 55 60 60 78 72 58 46 54 53 55 55 54
89 88 87 89 94 94 95 94 93 89 87 88 84 85 92 98 96 97 96 78 73 70 63 62 61 59 57 56 56 57 58 58 58 58 58 62 63 52 51 50 52 53 52
91 85 89 97 98 92 93 93 91 90 90 92 91 90 95 97 98 92 86 78 72 65 62 61 53 48 52 57 59 56 58 59 60 62 67 65 66 60 47 47 45 50 48
84 90 86 97 96 93 94 94 94 95 95 97 97 96 95 97 96 92 89 72 68 65 63 53 52 56 63 61 60 59 60 60 57 62 71 88 80 69 56 49 45 45 44
83 85 94 97 94 95 93 92 97 98 98 98 98 97 94 93 92 90 88 73 69 67 66 57 63 68 66 59 60 60 60 62 59 58 62 72 67 67 57 50 48 42 39
88 86 90 83 90 94 94 96 98 99 98 98 98 96 93 90 86 83 74 73 74 71 69 71 69 71 72 69 65 66 66 62 59 58 57 58 59 51 54 54 52 51 47
83 80 92 94 94 96 97 98 98 98 98 98 98 97 86 82 82 80 74 77 74 74 75 69 75 72 72 70 63 67 72 68 64 51 58 60 60 58 57 55 55 54 55
83 90 94 96 96 97 99 99 99 98 98 96 96 89 82 82 77 74 76 76 74 76 76 71 74 80 76 76 59 65 78 73 71 69 62 54 59 61 61 61 61 57 57
89 95 96 96 98 98 99 99 99 98 96 92 89 82 81 72 72 75 76 75 77 72 71 70 78 75 79 83 75 73 77 75 73 72 70 68 64 61 62 62 61 58 58
87 92 95 94 97 95 93 97 94 95 91 87 84 83 82 78 72 72 74 74 74 76 76 75 77 82 83 84 76 82 73 69 73 72 74 69 71 67 63 62 64 62 62
87 93 91 93 95 92 89 95 93 88 89 86 87 87 85 82 74 71 72 77 77 77 79 79 76 72 76 79 78 68 65 70 85 79 76 76 75 73 73 71 67 65 58
84 91 91 93 94 92 93 92 85 88 90 86 87 87 85 79 75 71 72 75 79 83 80 79 75 78 70 67 77 75 81 78 86 88 82 78 80 71 80 77 76 72 62
88 94 95 95 94 92 91 88 91 93 93 85 86 84 84 81 77 73 76 80 82 83 78 69 70 71 74 74 77 80 86 91 92 95 96 88 85 82 78 81 83 75 65
95 97 96 95 94 92 93 94 93 94 92 84 89 85 88 85 81 79 77 78 72 72 69 70 70 69 76 78 81 88 86 87 90 96 99 96 95 87 83 81 78 70 69

GFSSE_sfc_rhum_063.txt.gz
RH
77 66 91 90 90 90 90 90 89 89 88 87 86 82 79 77 75 74 74 72 70 66 64 65 68 73 74 72 77 80 82 81 78 75 69 66 66 69 71 71 64 48 67
77 65 90 90 90 89 89 89 89 88 87 85 84 80 77 77 76 74 73 70 69 64 65 68 68 68 75 76 79 81 81 83 80 76 69 63 64 64 67 69 72 56 68
78 65 71 90 89 88 88 88 88 86 82 78 78 78 78 77 75 73 71 71 71 70 74 75 72 67 77 80 82 79 78 80 80 77 68 41 49 67 69 71 71 68 67
74 67 67 90 89 88 88 87 86 82 80 78 78 78 78 77 74 72 72 72 74 75 74 73 70 72 81 80 80 79 78 78 78 71 44 42 44 67 69 71 71 71 67
78 71 70 90 89 88 87 86 83 82 80 78 78 78 78 76 73 72 72 71 70 71 71 74 76 81 81 83 84 84 80 81 80 54 44 47 45 60 68 68 65 69 72
85 76 85 89 88 88 87 85 84 82 80 78 78 78 77 75 74 73 72 70 70 69 66 74 75 75 82 84 85 84 83 80 66 43 45 55 51 66 65 66 68 70 70
91 85 79 90 86 89 88 86 85 84 82 80 79 79 77 77 78 76 75 73 72 72 71 70 72 77 79 82 82 82 81 79 43 43 45 48 55 65 64 64 64 66 68
92 86 83 88 85 89 88 88 87 85 84 83 82 81 81 82 82 80 79 78 76 75 75 76 77 78 79 78 79 80 79 71 48 46 46 45 64 63 62 61 61 64 66
96 98 97 95 93 90 92 92 89 87 86 86 87 89 88 86 84 81 79 78 79 78 77 76 79 79 80 80 80 81 80 74 46 46 45 43 63 61 59 58 57 60 61
95 97 98 97 93 96 89 92 92 89 89 90 90 88 86 85 84 84 82 80 80 82 81 79 82 81 77 78 77 77 76 69 43 45 45 47 63 60 60 56 55 57 56
98 97 96 90 96 92 80 89 90 89 89 88 85 88 85 69 63 57 78 84 80 80 76 70 68 72 74 71 63 59 57 43 44 43 42 75 61 58 59 57 55 56 56
97 98 95 93 90 90 89 94 86 73 70 73 71 76 70 71 69 61 72 83 79 75 72 65 61 59 47 32 32 44 31 36 40 45 44 74 55 55 57 56 56 55 55
91 94 94 91 94 90 87 83 76 69 70 69 74 74 74 74 74 72 69 63 55 56 40 44 40 35 42 36 37 38 36 34 31 30 44 65 63 46 54 53 54 54 53
92 89 87 85 75 92 82 76 76 68 72 73 72 74 74 74 81 79 72 56 54 46 48 44 43 48 44 43 43 43 41 33 31 29 34 67 65 54 53 50 53 51 49
83 86 83 77 92 85 84 76 75 74 70 82 80 76 81 78 82 74 68 57 51 44 43 43 40 40 42 41 39 38 38 41 43 35 40 80 73 55 48 46 45 50 46
70 76 75 74 81 83 77 77 72 76 70 75 75 71 80 75 80 75 64 52 48 42 40 39 40 40 38 39 42 42 42 37 44 52 48 52 71 63 56 50 45 44 41
64 62 68 76 81 80 76 73 71 68 68 66 71 85 84 85 80 78 74 56 45 47 52 58 46 43 38 36 43 41 38 40 38 43 41 42 43 62 56 50 46 44 42
63 67 67 70 84 84 77 72 70 73 73 76 87 89 84 83 78 72 53 53 50 48 48 45 42 41 42 38 40 39 37 37 40 39 35 34 34 29 38 55 53 54 53
65 65 70 76 81 84 80 83 84 84 86 87 90 88 83 80 73 63 55 56 55 49 49 44 47 46 43 39 34 41 43 38 40 32 38 39 40 35 31 48 54 52 53
69 68 73 78 82 85 87 85 85 85 85 85 88 83 76 67 66 57 54 56 50 49 50 47 51 50 46 46 33 39 47 43 42 42 38 33 38 41 37 41 37 35 52
70 72 76 81 83 79 84 91 90 93 86 85 82 74 69 60 61 66 51 54 52 49 51 56 54 55 49 51 44 43 48 50 52 45 43 40 41 39 44 40 38 35 33
68 72 75 75 79 75 70 74 75 76 74 75 74 76 68 64 62 64 57 54 54 52 58 58 56 52 51 53 42 43 37 42 45 45 46 44 49 42 38 42 47 45 42
70 75 73 73 75 72 72 72 72 70 71 78 80 69 65 63 61 56 58 56 58 54 54 57 56 55 50 52 54 39 36 30 39 42 51 47 51 47 44 44 44 47 48
72 71 72 74 75 76 77 74 75 72 72 74 73 67 69 68 59 54 54 59 60 56 58 57 53 53 50 43 50 47 53 43 34 36 42 46 50 50 50 45 44 47 52
71 78 76 74 75 77 78 78 78 78 79 81 71 74 71 72 59 54 57 61 61 56 62 60 61 64 65 65 44 48 51 48 55 51 41 42 47 46 45 46 49 51 49
75 77 80 77 76 78 80 80 79 80 81 85 77 71 66 62 60 59 56 60 62 61 57 68 58 69 67 64 54 52 49 45 41 51 54 52 54 50 49 48 49 50 45

GFSSE_sfc_rhum_069.txt.gz
RH
45 52 90 91 90 91 91 91 90 88 88 86 85 82 80 79 79 78 77 76 77 77 74 73 74 72 69 72 74 74 76 76 73 72 67 65 65 66 69 74 62 49 70
50 53 91 91 90 91 91 91 90 88 87 84 82 80 80 79 78 78 77 78 78 76 73 73 72 68 69 72 74 74 73 78 76 75 72 66 68 68 70 72 74 58 69
50 48 66 91 91 91 90 90 89 87 85 82 80 80 79 77 78 78 77 77 76 76 72 72 66 66 68 71 76 73 73 73 70 74 63 34 48 65 68 71 75 71 68
47 47 58 94 91 90 90 88 87 85 83 80 80 79 78 77 78 78 78 78 76 76 72 70 66 68 72 77 78 74 72 71 68 63 31 31 36 64 64 65 69 69 69
53 47 63 95 91 90 89 88 86 84 81 80 80 79 78 78 79 83 84 83 78 75 74 68 68 73 79 85 83 78 73 71 67 40 33 38 37 55 62 67 61 67 68
64 53 83 93 91 90 88 87 84 82 82 81 80 78 78 79 81 83 84 81 77 77 76 68 73 79 85 85 82 77 73 69 70 27 34 46 45 59 60 64 68 67 68
70 62 72 92 90 89 88 85 83 83 84 82 79 79 78 78 80 82 84 83 82 83 76 73 77 79 84 83 78 75 72 74 27 26 33 41 52 58 58 61 64 65 66
96 85 82 90 90 88 86 84 85 85 84 82 81 80 80 82 83 84 84 84 84 82 81 81 82 80 80 77 75 75 73 74 31 28 33 42 59 56 56 58 59 60 63
85 95 96 94 88 91 87 88 88 88 87 85 86 87 87 86 84 83 84 83 81 80 80 80 81 81 77 75 74 72 67 65 31 28 29 39 61 56 55 55 56 59 60
85 97 97 97 97 95 86 92 93 94 92 90 89 88 87 85 84 84 82 81 82 82 81 78 81 81 76 74 72 67 63 67 26 25 36 48 58 56 54 55 55 57 57
98 97 94 96 95 89 92 81 91 90 88 88 84 83 72 45 46 47 80 83 83 82 81 78 78 77 74 66 59 56 62 25 24 26 38 69 59 58 56 55 55 57 56
98 97 93 90 91 85 84 84 80 73 65 61 58 57 47 52 43 48 73 83 82 80 76 76 74 74 61 30 30 46 24 25 22 25 44 70 55 59 57 56 55 55 54
97 96 93 92 92 88 91 88 85 83 60 62 60 51 53 52 57 53 59 52 56 60 40 41 42 35 39 34 32 30 24 22 20 18 43 60 60 55 57 55 53 51 52
96 94 95 93 93 91 88 87 88 80 63 58 57 60 62 55 53 54 48 51 47 39 42 40 40 46 41 36 33 31 28 22 20 18 50 66 57 54 54 55 53 49 48
95 94 92 91 91 87 87 86 83 67 57 60 57 62 57 55 59 48 48 46 42 39 42 43 43 37 37 33 28 26 26 28 26 22 43 77 68 51 52 46 48 49 47
92 94 90 92 93 89 88 68 59 58 50 55 57 54 60 53 59 48 50 44 42 42 40 40 39 36 32 31 30 27 26 24 28 30 29 49 73 64 57 51 47 46 44
90 84 91 89 87 78 74 67 57 52 46 43 42 55 54 50 55 53 51 47 43 42 46 41 40 34 30 24 27 26 26 28 29 29 24 33 50 70 59 52 53 53 51
84 83 82 67 70 75 71 59 51 41 44 41 40 46 51 57 59 58 53 54 51 45 43 40 38 34 30 27 29 26 26 26 29 28 25 26 26 25 55 53 47 42 42
56 58 61 59 63 73 66 50 47 52 41 36 43 54 68 70 66 63 58 52 50 45 43 41 39 36 32 28 27 30 32 28 31 20 26 28 31 26 23 51 46 44 41
48 48 48 56 65 69 71 56 46 46 42 42 48 53 63 68 70 67 52 52 51 45 45 42 42 34 33 33 22 27 36 32 31 31 29 24 27 30 29 30 31 34 49
46 43 46 53 58 61 54 49 42 41 38 40 50 61 68 64 66 65 50 52 51 46 48 47 43 45 40 40 39 38 36 39 40 35 33 32 29 28 30 32 32 27 28
45 43 41 40 46 49 43 40 36 37 36 38 58 71 70 64 62 61 54 52 52 46 50 50 46 43 41 42 43 41 44 40 38 38 36 34 36 31 28 29 32 35 34
41 45 41 40 39 43 41 38 38 39 39 42 56 71 68 64 59 59 54 51 52 48 49 51 48 47 44 45 44 46 49 51 39 32 36 31 37 34 35 32 33 33 34
42 42 42 41 38 40 48 42 46 40 41 41 51 61 63 62 62 58 53 53 56 52 52 51 44 48 48 48 45 41 47 41 44 43 28 31 34 36 40 36 34 34 34
39 42 44 41 40 40 52 46 45 47 42 42 51 66 71 65 62 62 56 56 59 56 54 55 51 52 48 52 50 49 48 45 46 45 45 37 30 27 27 31 32 34 34
44 47 44 43 41 42 47 53 51 53 49 42 61 66 67 64 65 75 66 61 61 58 55 52 52 54 60 55 51 56 48 47 40 37 38 38 35 31 27 26 31 34 34